| time (UTC) | temp F | wind direction | speed knots | gust knots | rain 1hr in | rain 24hr in | rain mn in | humidity % | barometer mb |
| 20260506082506 | 51 | 11 | 0.9 | 5.2 | 0.10 | 0.63 | 0.24 | 1 | 1009.0 |
| 20260506082426 | 51 | 11 | 0.9 | 5.2 | 0.10 | 0.63 | 0.24 | 1 | 1009.0 |
| 20260506082235 | 51 | 59 | 0.9 | 5.2 | 0.10 | 0.63 | 0.24 | 1 | 1008.8 |
| 20260506082150 | 51 | 59 | 1.7 | 5.2 | 0.10 | 0.63 | 0.24 | 1 | 1008.6 |
| 20260506081939 | 51 | 59 | 2.6 | 5.2 | 0.09 | 0.62 | 0.23 | 1 | 1008.7 |
| 20260506081854 | 51 | 40 | 2.6 | 5.2 | 0.09 | 0.62 | 0.23 | 1 | 1008.7 |
| 20260506081817 | 51 | 28 | 2.6 | 5.2 | 0.09 | 0.62 | 0.23 | 1 | 1008.9 |
| 20260506081647 | 52 | 350 | 2.6 | 5.2 | 0.08 | 0.61 | 0.22 | 1 | 1009.5 |
| 20260506081548 | 52 | 323 | 2.6 | 5.2 | 0.08 | 0.61 | 0.22 | 1 | 1009.7 |
| 20260506081329 | 52 | 300 | 2.6 | 5.2 | 0.08 | 0.61 | 0.22 | 1 | 1009.5 |
| 20260506081252 | 52 | 292 | 3.5 | 5.2 | 0.08 | 0.61 | 0.22 | 1 | 1009.5 |
| 20260506081200 | 52 | 329 | 2.6 | 4.3 | 0.08 | 0.61 | 0.22 | 1 | 1008.8 |
| 20260506081041 | 52 | 342 | 1.7 | 4.3 | 0.08 | 0.61 | 0.22 | 1 | 1008.8 |
| 20260506080925 | 52 | 5 | 1.7 | 4.3 | 0.08 | 0.61 | 0.22 | 1 | 1008.8 |
| 20260506080847 | 52 | 5 | 1.7 | 4.3 | 0.08 | 0.61 | 0.22 | 1 | 1008.8 |
| 20260506080628 | 52 | 350 | 2.6 | 4.3 | 0.08 | 0.61 | 0.22 | 1 | 1008.8 |
| 20260506080551 | 52 | 16 | 2.6 | 4.3 | 0.08 | 0.61 | 0.22 | 1 | 1008.8 |
| 20260506080435 | 52 | 340 | 2.6 | 4.3 | 0.08 | 0.61 | 0.22 | 1 | 1008.8 |
| 20260506080336 | 52 | 351 | 2.6 | 4.3 | 0.08 | 0.61 | 0.22 | 1 | 1008.9 |
| 20260506080221 | 52 | 355 | 3.5 | 4.3 | 0.08 | 0.61 | 0.22 | 1 | 1008.9 |
| 20260506080144 | 52 | 348 | 2.6 | 4.3 | 0.08 | 0.61 | 0.22 | 1 | 1008.9 |
| 20260506080106 | 52 | 355 | 2.6 | 4.3 | 0.08 | 0.61 | 0.22 | 1 | 1009.0 |
| 20260506073515 | 53 | 343 | 4.3 | 5.2 | 0.01 | 0.53 | 0.14 | 1 | 1008.3 |
| 20260506073337 | 53 | 344 | 3.5 | 5.2 | 0.01 | 0.53 | 0.14 | 1 | 1008.2 |
| 20260506073243 | 53 | 355 | 3.5 | 4.3 | 0.01 | 0.53 | 0.14 | 1 | 1008.2 |
| 20260506073126 | 53 | 355 | 3.5 | 4.3 | 0.01 | 0.53 | 0.14 | 1 | 1008.4 |
| 20260506073048 | 53 | 341 | 3.5 | 4.3 | 0.01 | 0.53 | 0.14 | 1 | 1008.5 |
| 20260506072831 | 53 | 346 | 2.6 | 4.3 | 0.01 | 0.53 | 0.14 | 1 | 1008.4 |
| 20260506072734 | 53 | 343 | 3.5 | 4.3 | 0.01 | 0.53 | 0.14 | 1 | 1008.4 |
| 20260506072625 | 53 | 343 | 2.6 | 4.3 | 0.01 | 0.53 | 0.14 | 1 | 1008.3 |
| 20260506072548 | 53 | 338 | 2.6 | 4.3 | 0.01 | 0.53 | 0.14 | 1 | 1008.3 |
| 20260506072418 | 53 | 355 | 3.5 | 4.3 | 0.01 | 0.53 | 0.14 | 1 | 1008.5 |
| 20260506072334 | 53 | 350 | 3.5 | 4.3 | 0.01 | 0.53 | 0.14 | 1 | 1008.6 |
| 20260506072204 | 53 | 338 | 2.6 | 4.3 | 0.01 | 0.53 | 0.14 | 1 | 1008.7 |
| 20260506072125 | 53 | 342 | 2.6 | 4.3 | 0.01 | 0.53 | 0.14 | 1 | 1008.7 |
| 20260506071928 | 53 | 346 | 2.6 | 4.3 | 0.01 | 0.53 | 0.14 | 1 | 1008.7 |
| 20260506071852 | 53 | 338 | 3.5 | 4.3 | 0.01 | 0.53 | 0.14 | 1 | 1008.7 |
| 20260506071735 | 53 | 324 | 3.5 | 4.3 | 0.01 | 0.53 | 0.14 | 1 | 1008.6 |
| 20260506071656 | 53 | 342 | 2.6 | 3.5 | 0.01 | 0.53 | 0.14 | 1 | 1008.5 |
| 20260506071559 | 53 | 341 | 2.6 | 3.5 | 0.01 | 0.53 | 0.14 | 1 | 1008.5 |
| 20260506071500 | 53 | 329 | 2.6 | 3.5 | 0.01 | 0.53 | 0.14 | 1 | 1008.3 |
| 20260506071342 | 53 | 329 | 2.6 | 3.5 | 0.01 | 0.53 | 0.14 | 1 | 1008.3 |
| 20260506071245 | 53 | 327 | 2.6 | 3.5 | 0.01 | 0.53 | 0.14 | 1 | 1008.3 |
| 20260506071150 | 54 | 329 | 2.6 | 3.5 | 0.01 | 0.53 | 0.14 | 1 | 1008.3 |
| 20260506071112 | 54 | 339 | 2.6 | 3.5 | 0.01 | 0.53 | 0.14 | 1 | 1008.3 |
| 20260506071019 | 54 | 325 | 1.7 | 3.5 | 0.01 | 0.53 | 0.14 | 1 | 1008.3 |
| 20260506070940 | 54 | 325 | 1.7 | 2.6 | 0.01 | 0.53 | 0.14 | 1 | 1008.3 |
| 20260506070810 | 54 | 360 | 0.0 | 1.7 | 0.01 | 0.53 | 0.14 | 1 | 1008.3 |
| 20260506070623 | 54 | 40 | 0.0 | 2.6 | 0.01 | 0.53 | 0.14 | 1 | 1008.3 |
| 20260506070528 | 54 | 40 | 0.0 | 3.5 | 0.01 | 0.53 | 0.14 | 1 | 1008.3 |
| 20260506070428 | 54 | 40 | 0.0 | 3.5 | 0.01 | 0.53 | 0.14 | 1 | 1008.3 |
| 20260506070239 | 54 | 40 | 0.9 | 3.5 | 0.01 | 0.53 | 0.14 | 1 | 1008.5 |
| 20260506070138 | 54 | 40 | 0.0 | 3.5 | 0.01 | 0.53 | 0.14 | 1 | 1008.5 |
| 20260506062427 | 54 | 355 | 1.7 | 3.5 | 0.01 | 0.52 | 0.13 | 1 | 1008.4 |
| 20260506062342 | 54 | 335 | 1.7 | 3.5 | 0.01 | 0.52 | 0.13 | 1 | 1008.4 |
| 20260506062244 | 54 | 347 | 1.7 | 3.5 | 0.01 | 0.52 | 0.13 | 1 | 1008.4 |
| 20260506062149 | 54 | 348 | 1.7 | 3.5 | 0.01 | 0.52 | 0.13 | 1 | 1008.2 |
| 20260506062030 | 54 | 16 | 0.9 | 3.5 | 0.01 | 0.52 | 0.13 | 1 | 1008.2 |
| 20260506061933 | 54 | 11 | 1.7 | 3.5 | 0.01 | 0.52 | 0.13 | 1 | 1008.3 |
| 20260506061855 | 54 | 10 | 1.7 | 3.5 | 0.01 | 0.52 | 0.13 | 1 | 1008.3 |
| 20260506061822 | 54 | 11 | 1.7 | 3.5 | 0.01 | 0.52 | 0.13 | 1 | 1008.3 |
| 20260506061626 | 54 | 5 | 1.7 | 3.5 | 0.01 | 0.52 | 0.13 | 1 | 1008.2 |
| 20260506061529 | 54 | 13 | 1.7 | 3.5 | 0.01 | 0.52 | 0.13 | 1 | 1008.2 |
| 20260506061432 | 54 | 5 | 2.6 | 3.5 | 0.01 | 0.52 | 0.13 | 1 | 1008.4 |
| 20260506061356 | 54 | 5 | 2.6 | 3.5 | 0.01 | 0.52 | 0.13 | 1 | 1008.4 |
| 20260506061319 | 54 | 360 | 2.6 | 3.5 | 0.01 | 0.52 | 0.13 | 1 | 1008.4 |
| 20260506061223 | 54 | 340 | 1.7 | 3.5 | 0.01 | 0.52 | 0.13 | 1 | 1008.4 |
| 20260506061123 | 54 | 340 | 1.7 | 3.5 | 0.01 | 0.52 | 0.13 | 1 | 1008.4 |
| 20260506060935 | 54 | 13 | 0.0 | 0.9 | 0.01 | 0.52 | 0.13 | 1 | 1008.5 |
| 20260506060831 | 54 | 13 | 0.0 | 0.9 | 0.02 | 0.52 | 0.13 | 1 | 1008.5 |
| 20260506060755 | 54 | 13 | 0.0 | 0.9 | 0.02 | 0.52 | 0.13 | 1 | 1008.5 |
| 20260506060639 | 54 | 13 | 0.0 | 1.7 | 0.02 | 0.52 | 0.13 | 1 | 1008.6 |
| 20260506060602 | 54 | 13 | 0.0 | 1.7 | 0.02 | 0.52 | 0.13 | 1 | 1008.6 |
| 20260506060516 | 54 | 13 | 0.0 | 1.7 | 0.02 | 0.52 | 0.13 | 1 | 1008.5 |
| 20260506060345 | 54 | 13 | 0.0 | 1.7 | 0.03 | 0.52 | 0.13 | 1 | 1008.5 |
| 20260506060247 | 54 | 13 | 0.0 | 1.7 | 0.03 | 0.52 | 0.13 | 1 | 1008.5 |
| 20260506060151 | 54 | 13 | 0.0 | 1.7 | 0.04 | 0.52 | 0.13 | 1 | 1008.4 |
| 20260506051400 | 55 | 141 | 0.0 | 0.9 | 0.08 | 0.51 | 0.12 | 1 | 1008.7 |
| 20260506051158 | 55 | 141 | 0.0 | 0.0 | 0.08 | 0.51 | 0.12 | 1 | 1008.8 |
| 20260506051120 | 55 | 141 | 0.0 | 0.0 | 0.08 | 0.51 | 0.12 | 1 | 1008.7 |
| 20260506050922 | 55 | 141 | 0.0 | 1.7 | 0.08 | 0.51 | 0.12 | 1 | 1008.7 |
| 20260506050845 | 55 | 141 | 0.0 | 2.6 | 0.08 | 0.51 | 0.12 | 1 | 1008.7 |
| 20260506050729 | 55 | 141 | 0.0 | 3.5 | 0.07 | 0.50 | 0.11 | 1 | 1008.8 |
| 20260506050650 | 55 | 141 | 0.0 | 3.5 | 0.07 | 0.50 | 0.11 | 1 | 1008.8 |
| 20260506050521 | 55 | 141 | 0.0 | 4.3 | 0.08 | 0.50 | 0.11 | 1 | 1008.9 |
| 20260506050437 | 55 | 141 | 0.0 | 4.3 | 0.08 | 0.50 | 0.11 | 1 | 1008.9 |
| 20260506050309 | 55 | 141 | 0.0 | 4.3 | 0.08 | 0.49 | 0.10 | 1 | 1008.9 |
| 20260506050234 | 55 | 141 | 0.0 | 4.3 | 0.08 | 0.48 | 0.09 | 1 | 1009.0 |
| 20260506045102 | 55 | 128 | 0.9 | 2.6 | 0.06 | 0.45 | 0.06 | 1 | 1008.9 |
| 20260506045025 | 55 | 127 | 0.9 | 2.6 | 0.06 | 0.45 | 0.06 | 1 | 1008.7 |
| 20260506044826 | 55 | 127 | 0.9 | 2.6 | 0.06 | 0.45 | 0.06 | 1 | 1008.7 |
| 20260506044749 | 55 | 127 | 1.7 | 2.6 | 0.06 | 0.45 | 0.06 | 1 | 1008.7 |
| 20260506044654 | 55 | 81 | 1.7 | 2.6 | 0.06 | 0.45 | 0.06 | 1 | 1008.8 |
| 20260506044616 | 55 | 81 | 1.7 | 2.6 | 0.06 | 0.45 | 0.06 | 1 | 1008.8 |
| 20260506044448 | 55 | 81 | 0.9 | 2.6 | 0.06 | 0.45 | 0.06 | 1 | 1008.5 |
| 20260506044349 | 55 | 81 | 0.0 | 2.6 | 0.07 | 0.45 | 0.06 | 1 | 1008.4 |
| 20260506044231 | 55 | 81 | 0.0 | 2.6 | 0.07 | 0.45 | 0.06 | 1 | 1008.3 |
| 20260506044154 | 55 | 81 | 0.0 | 2.6 | 0.07 | 0.45 | 0.06 | 1 | 1008.3 |
| 20260506044120 | 55 | 81 | 0.0 | 2.6 | 0.07 | 0.45 | 0.06 | 1 | 1008.2 |
| 20260506044004 | 55 | 81 | 0.0 | 2.6 | 0.07 | 0.45 | 0.06 | 1 | 1008.2 |
| 20260506043925 | 55 | 81 | 0.0 | 2.6 | 0.07 | 0.45 | 0.06 | 1 | 1008.3 |
| 20260506043736 | 55 | 81 | 0.9 | 2.6 | 0.08 | 0.45 | 0.06 | 1 | 1008.2 |
| 20260506043651 | 55 | 84 | 1.7 | 2.6 | 0.08 | 0.45 | 0.06 | 1 | 1008.2 |
| 20260506043500 | 55 | 5 | 0.9 | 2.6 | 0.08 | 0.44 | 0.05 | 1 | 1008.0 |
| 20260506043422 | 55 | 5 | 0.9 | 2.6 | 0.08 | 0.44 | 0.05 | 1 | 1008.2 |
| 20260506043224 | 55 | 5 | 0.0 | 2.6 | 0.09 | 0.44 | 0.05 | 1 | 1008.4 |
| 20260506043146 | 55 | 5 | 0.0 | 2.6 | 0.09 | 0.44 | 0.05 | 1 | 1008.3 |
| 20260506043038 | 55 | 5 | 0.9 | 2.6 | 0.10 | 0.44 | 0.05 | 1 | 1008.2 |
| 20260506042945 | 55 | 5 | 1.7 | 2.6 | 0.10 | 0.44 | 0.05 | 1 | 1008.2 |
| 20260506042830 | 55 | 5 | 1.7 | 2.6 | 0.10 | 0.44 | 0.05 | 1 | 1008.0 |
| 20260506042752 | 55 | 16 | 0.9 | 2.6 | 0.10 | 0.44 | 0.05 | 1 | 1008.0 |
| 20260506042623 | 55 | 42 | 0.0 | 2.6 | 0.10 | 0.44 | 0.05 | 1 | 1008.0 |
| 20260506042516 | 55 | 58 | 0.0 | 2.6 | 0.11 | 0.44 | 0.05 | 1 | 1007.9 |
| 20260506042326 | 55 | 58 | 0.9 | 2.6 | 0.12 | 0.44 | 0.05 | 1 | 1007.8 |
| 20260506042242 | 55 | 58 | 0.9 | 2.6 | 0.12 | 0.44 | 0.05 | 1 | 1007.8 |
| 20260506042145 | 55 | 74 | 0.9 | 3.5 | 0.11 | 0.43 | 0.04 | 1 | 1007.8 |
| 20260506042030 | 55 | 331 | 0.0 | 4.3 | 0.11 | 0.43 | 0.04 | 1 | 1008.5 |
| 20260506041956 | 55 | 331 | 0.9 | 4.3 | 0.11 | 0.43 | 0.04 | 1 | 1008.7 |
| 20260506041738 | 55 | 331 | 1.7 | 4.3 | 0.11 | 0.43 | 0.04 | 1 | 1008.6 |
| 20260506041700 | 55 | 331 | 1.7 | 4.3 | 0.11 | 0.43 | 0.04 | 1 | 1008.6 |
| 20260506041604 | 55 | 331 | 1.7 | 4.3 | 0.11 | 0.43 | 0.04 | 1 | 1008.6 |
| 20260506041526 | 55 | 331 | 1.7 | 4.3 | 0.11 | 0.43 | 0.04 | 1 | 1008.5 |
| 20260506041329 | 55 | 326 | 1.7 | 4.3 | 0.11 | 0.43 | 0.04 | 1 | 1008.2 |
| 20260506041231 | 55 | 34 | 1.7 | 4.3 | 0.11 | 0.43 | 0.04 | 1 | 1008.1 |
| 20260506041134 | 55 | 5 | 1.7 | 4.3 | 0.12 | 0.43 | 0.04 | 1 | 1008.0 |
| 20260506041058 | 55 | 5 | 2.6 | 4.3 | 0.12 | 0.43 | 0.04 | 1 | 1008.0 |
| 20260506041020 | 55 | 16 | 2.6 | 4.3 | 0.12 | 0.43 | 0.04 | 1 | 1007.9 |
| 20260506040828 | 55 | 54 | 1.7 | 4.3 | 0.12 | 0.43 | 0.04 | 1 | 1007.9 |
| 20260506040729 | 55 | 72 | 0.9 | 4.3 | 0.12 | 0.43 | 0.04 | 1 | 1007.9 |
| 20260506040623 | 55 | 84 | 1.7 | 4.3 | 0.12 | 0.43 | 0.04 | 1 | 1007.9 |
| 20260506040546 | 55 | 73 | 0.9 | 4.3 | 0.11 | 0.42 | 0.03 | 1 | 1008.0 |
| 20260506040326 | 55 | 75 | 1.7 | 4.3 | 0.11 | 0.41 | 0.02 | 1 | 1008.0 |
| 20260506040249 | 55 | 75 | 2.6 | 4.3 | 0.10 | 0.40 | 0.01 | 1 | 1008.0 |
| 20260506040132 | 56 | 70 | 2.6 | 4.3 | 0.12 | 0.40 | 0.01 | 1 | 1008.1 |
| 20260506040056 | 56 | 67 | 1.7 | 2.6 | 0.11 | 0.39 | 0.00 | 1 | 1008.1 |
| 20260506040021 | 56 | 67 | 0.9 | 2.6 | 0.11 | 0.39 | 0.00 | 1 | 1008.4 |
| 20260506035923 | 56 | 65 | 0.0 | 1.7 | 0.12 | 0.39 | 0.39 | 1 | 1008.8 |
| 20260506035825 | 56 | 65 | 0.0 | 1.7 | 0.12 | 0.39 | 0.39 | 1 | 1008.9 |
| 20260506035630 | 56 | 65 | 0.0 | 1.7 | 0.12 | 0.39 | 0.39 | 1 | 1008.8 |
| 20260506035531 | 56 | 65 | 0.0 | 1.7 | 0.12 | 0.39 | 0.39 | 1 | 1008.8 |
| 20260506035434 | 56 | 65 | 0.0 | 2.6 | 0.12 | 0.39 | 0.39 | 1 | 1008.7 |
| 20260506035356 | 56 | 65 | 0.0 | 2.6 | 0.12 | 0.39 | 0.39 | 1 | 1008.7 |
| 20260506035319 | 56 | 65 | 0.9 | 5.2 | 0.12 | 0.39 | 0.39 | 1 | 1008.6 |
| 20260506035122 | 56 | 65 | 0.9 | 5.2 | 0.12 | 0.39 | 0.39 | 1 | 1008.5 |
| 20260506035045 | 56 | 65 | 0.0 | 5.2 | 0.12 | 0.39 | 0.39 | 1 | 1008.5 |
| 20260506034930 | 56 | 65 | 0.0 | 5.2 | 0.13 | 0.39 | 0.39 | 1 | 1008.5 |
| 20260506034855 | 56 | 65 | 0.0 | 5.2 | 0.13 | 0.39 | 0.39 | 1 | 1008.5 |
| 20260506034810 | 56 | 65 | 0.9 | 5.2 | 0.13 | 0.39 | 0.39 | 1 | 1008.4 |
| 20260506034640 | 56 | 75 | 1.7 | 5.2 | 0.13 | 0.39 | 0.39 | 1 | 1008.4 |
| 20260506034541 | 56 | 85 | 1.7 | 5.2 | 0.13 | 0.39 | 0.39 | 1 | 1008.5 |
| 20260506034411 | 56 | 103 | 0.0 | 3.5 | 0.12 | 0.38 | 0.38 | 1 | 1008.5 |
| 20260506034327 | 56 | 60 | 0.0 | 3.5 | 0.12 | 0.38 | 0.38 | 1 | 1008.5 |
| 20260506034137 | 56 | 60 | 0.0 | 3.5 | 0.12 | 0.38 | 0.38 | 1 | 1008.5 |
| 20260506034053 | 56 | 60 | 0.0 | 3.5 | 0.12 | 0.38 | 0.38 | 1 | 1008.5 |
| 20260506033923 | 56 | 60 | 1.7 | 3.5 | 0.12 | 0.38 | 0.38 | 1 | 1008.4 |
| 20260506033845 | 56 | 76 | 2.6 | 3.5 | 0.11 | 0.37 | 0.37 | 1 | 1008.4 |
| 20260506033629 | 57 | 77 | 1.7 | 3.5 | 0.11 | 0.37 | 0.37 | 1 | 1008.4 |
| 20260506033552 | 57 | 82 | 0.9 | 3.5 | 0.10 | 0.36 | 0.36 | 1 | 1008.4 |
| 20260506033435 | 57 | 88 | 2.6 | 3.5 | 0.11 | 0.36 | 0.36 | 1 | 1008.4 |
| 20260506033357 | 57 | 81 | 1.7 | 3.5 | 0.11 | 0.36 | 0.36 | 1 | 1008.4 |
| 20260506033320 | 57 | 85 | 0.9 | 3.5 | 0.10 | 0.35 | 0.35 | 1 | 1008.4 |
| 20260506033123 | 57 | 46 | 0.0 | 2.6 | 0.10 | 0.34 | 0.34 | 1 | 1008.4 |
| 20260506033038 | 57 | 46 | 0.0 | 2.6 | 0.10 | 0.34 | 0.34 | 1 | 1008.3 |
| 20260506032908 | 57 | 46 | 0.0 | 2.6 | 0.10 | 0.34 | 0.34 | 1 | 1008.3 |
| 20260506032830 | 57 | 46 | 0.0 | 2.6 | 0.10 | 0.34 | 0.34 | 1 | 1008.2 |
| 20260506032636 | 57 | 46 | 0.0 | 2.6 | 0.10 | 0.34 | 0.34 | 1 | 1008.0 |
| 20260506032600 | 57 | 46 | 0.9 | 2.6 | 0.10 | 0.34 | 0.34 | 1 | 1008.0 |
| 20260506032423 | 57 | 52 | 0.9 | 2.6 | 0.09 | 0.33 | 0.33 | 1 | 1008.1 |
| 20260506032339 | 57 | 53 | 0.0 | 0.0 | 0.08 | 0.32 | 0.32 | 1 | 1008.0 |
| 20260506032209 | 58 | 78 | 0.0 | 0.0 | 0.08 | 0.32 | 0.32 | 1 | 1008.1 |
| 20260506032131 | 58 | 65 | 0.0 | 0.0 | 0.08 | 0.32 | 0.32 | 1 | 1008.1 |
| 20260506031936 | 58 | 347 | 0.0 | 0.0 | 0.08 | 0.32 | 0.32 | 1 | 1008.1 |
| 20260506031838 | 58 | 347 | 0.0 | 0.0 | 0.08 | 0.32 | 0.32 | 1 | 1008.1 |
| 20260506031724 | 58 | 360 | 0.0 | 0.0 | 0.08 | 0.32 | 0.32 | 1 | 1008.0 |
| 20260506031647 | 58 | 49 | 0.0 | 0.0 | 0.08 | 0.32 | 0.32 | 1 | 1008.0 |
| 20260506031526 | 58 | 86 | 0.0 | 0.0 | 0.08 | 0.32 | 0.32 | 1 | 1008.0 |
| 20260506031429 | 58 | 86 | 0.0 | 0.9 | 0.08 | 0.32 | 0.32 | 1 | 1008.1 |
| 20260506031351 | 58 | 86 | 0.0 | 1.7 | 0.08 | 0.32 | 0.32 | 1 | 1008.1 |
| 20260506031313 | 58 | 86 | 0.0 | 2.6 | 0.08 | 0.32 | 0.32 | 1 | 1008.1 |
| 20260506031136 | 59 | 86 | 0.0 | 3.5 | 0.07 | 0.31 | 0.31 | 1 | 1008.1 |
| 20260506031058 | 59 | 86 | 0.0 | 3.5 | 0.07 | 0.31 | 0.31 | 1 | 1008.1 |
| 20260506030923 | 59 | 86 | 0.0 | 3.5 | 0.07 | 0.31 | 0.31 | 1 | 1008.1 |
| 20260506030845 | 59 | 86 | 0.0 | 3.5 | 0.07 | 0.31 | 0.31 | 1 | 1008.1 |
| 20260506030807 | 59 | 86 | 0.0 | 3.5 | 0.07 | 0.31 | 0.31 | 1 | 1008.0 |
| 20260506030711 | 59 | 86 | 0.9 | 3.5 | 0.07 | 0.31 | 0.31 | 1 | 1008.0 |
| 20260506030634 | 59 | 86 | 0.9 | 3.5 | 0.07 | 0.31 | 0.31 | 1 | 1008.0 |
| 20260506030437 | 59 | 86 | 2.6 | 3.5 | 0.06 | 0.30 | 0.30 | 1 | 1007.9 |
| 20260506030340 | 59 | 86 | 1.7 | 3.5 | 0.06 | 0.30 | 0.30 | 1 | 1007.9 |
| 20260506030224 | 59 | 142 | 0.9 | 1.7 | 0.05 | 0.29 | 0.29 | 1 | 1008.0 |
| 20260506030146 | 59 | 142 | 0.9 | 1.7 | 0.04 | 0.28 | 0.28 | 1 | 1008.0 |
| 20260506025931 | 59 | 142 | 0.9 | 3.5 | 0.03 | 0.27 | 0.27 | 1 | 1008.1 |
| 20260506025855 | 59 | 142 | 0.9 | 3.5 | 0.03 | 0.27 | 0.27 | 1 | 1008.1 |
| 20260506025738 | 60 | 217 | 1.7 | 3.5 | 0.03 | 0.27 | 0.27 | 1 | 1008.2 |
| 20260506025700 | 60 | 260 | 1.7 | 3.5 | 0.03 | 0.27 | 0.27 | 1 | 1008.2 |
| 20260506025615 | 60 | 277 | 0.9 | 3.5 | 0.03 | 0.27 | 0.27 | 1 | 1008.2 |
| 20260506025425 | 60 | 313 | 0.0 | 3.5 | 0.03 | 0.27 | 0.27 | 1 | 1008.0 |
| 20260506025348 | 60 | 313 | 0.9 | 3.5 | 0.03 | 0.27 | 0.27 | 1 | 1007.9 |
| 20260506025229 | 60 | 313 | 1.7 | 3.5 | 0.03 | 0.27 | 0.27 | 1 | 1007.9 |
| 20260506025152 | 60 | 34 | 1.7 | 3.5 | 0.03 | 0.27 | 0.27 | 1 | 1007.9 |
| 20260506024916 | 60 | 267 | 1.7 | 3.5 | 0.02 | 0.26 | 0.26 | 1 | 1007.9 |
| 20260506024851 | 60 | 267 | 1.7 | 3.5 | 0.02 | 0.26 | 0.26 | 1 | 1007.9 |
| 20260506024745 | 60 | 298 | 0.0 | 2.6 | 0.02 | 0.26 | 0.26 | 1 | 1007.7 |
| 20260506024646 | 60 | 336 | 0.0 | 3.5 | 0.02 | 0.26 | 0.26 | 1 | 1007.7 |
| 20260506024517 | 60 | 336 | 0.0 | 4.3 | 0.02 | 0.26 | 0.26 | 1 | 1007.5 |
| 20260506024430 | 60 | 336 | 0.0 | 4.3 | 0.02 | 0.26 | 0.26 | 1 | 1007.5 |
| 20260506024241 | 60 | 336 | 0.0 | 5.2 | 0.02 | 0.26 | 0.26 | 1 | 1007.5 |
| 20260506024203 | 60 | 336 | 0.9 | 5.2 | 0.02 | 0.26 | 0.26 | 1 | 1007.4 |
| 20260506023943 | 61 | 328 | 1.7 | 5.2 | 0.02 | 0.26 | 0.26 | 1 | 1007.4 |
| 20260506023813 | 61 | 34 | 2.6 | 5.2 | 0.02 | 0.26 | 0.26 | 1 | 1007.4 |
| 20260506023734 | 61 | 355 | 3.5 | 5.2 | 0.02 | 0.26 | 0.26 | 1 | 1007.3 |
| 20260506023539 | 61 | 341 | 2.6 | 6.1 | 0.02 | 0.26 | 0.26 | 1 | 1007.4 |
| 20260506023503 | 61 | 355 | 1.7 | 6.1 | 0.01 | 0.25 | 0.25 | 1 | 1007.4 |
| 20260506023406 | 61 | 204 | 1.7 | 6.1 | 0.01 | 0.25 | 0.25 | 1 | 1007.3 |
| 20260506023328 | 61 | 186 | 1.7 | 6.1 | 0.01 | 0.25 | 0.25 | 1 | 1007.1 |
| 20260506023132 | 60 | 228 | 2.6 | 6.1 | 0.00 | 0.24 | 0.24 | 1 | 1007.2 |
| 20260506023033 | 60 | 280 | 2.6 | 6.1 | 0.00 | 0.24 | 0.24 | 1 | 1007.3 |
| 20260506022937 | 60 | 296 | 2.6 | 6.1 | 0.00 | 0.24 | 0.24 | 1 | 1007.2 |
| 20260506022838 | 60 | 304 | 2.6 | 6.1 | 0.00 | 0.24 | 0.24 | 1 | 1007.1 |
| 20260506022708 | 60 | 254 | 1.7 | 6.1 | 0.00 | 0.24 | 0.24 | 1 | 1007.0 |
| 20260506022630 | 60 | 244 | 0.9 | 6.1 | 0.00 | 0.24 | 0.24 | 1 | 1007.0 |
| 20260506022436 | 60 | 277 | 1.7 | 6.1 | 0.00 | 0.24 | 0.24 | 1 | 1006.9 |
| 20260506022400 | 60 | 244 | 1.7 | 6.1 | 0.00 | 0.24 | 0.24 | 1 | 1006.9 |
| 20260506022243 | 60 | 267 | 1.7 | 3.5 | 0.00 | 0.24 | 0.24 | 1 | 1006.9 |
| 20260506022146 | 60 | 275 | 1.7 | 2.6 | 0.00 | 0.24 | 0.24 | 1 | 1006.9 |
| 20260506022031 | 60 | 241 | 1.7 | 2.6 | 0.00 | 0.24 | 0.24 | 1 | 1006.9 |
| 20260506021953 | 60 | 240 | 0.9 | 2.6 | 0.00 | 0.24 | 0.24 | 1 | 1006.8 |
| 20260506021835 | 60 | 220 | 0.9 | 2.6 | 0.00 | 0.24 | 0.24 | 1 | 1006.8 |
| 20260506021758 | 60 | 220 | 0.0 | 2.6 | 0.00 | 0.24 | 0.24 | 1 | 1006.8 |
| 20260506021720 | 60 | 220 | 0.0 | 2.6 | 0.00 | 0.24 | 0.24 | 1 | 1006.8 |
| 20260506021525 | 61 | 220 | 0.9 | 2.6 | 0.00 | 0.24 | 0.24 | 1 | 1006.8 |
| 20260506021447 | 61 | 220 | 0.0 | 2.6 | 0.00 | 0.24 | 0.24 | 1 | 1006.8 |
| 20260506021330 | 61 | 220 | 0.0 | 2.6 | 0.00 | 0.24 | 0.24 | 1 | 1006.7 |
| 20260506021250 | 61 | 220 | 0.9 | 2.6 | 0.00 | 0.24 | 0.24 | 1 | 1006.7 |
| 20260506021122 | 61 | 220 | 0.9 | 2.6 | 0.00 | 0.24 | 0.24 | 1 | 1006.6 |
| 20260506021038 | 61 | 206 | 0.9 | 2.6 | 0.00 | 0.24 | 0.24 | 1 | 1006.6 |
| 20260506020908 | 61 | 223 | 0.9 | 2.6 | 0.00 | 0.24 | 0.24 | 1 | 1006.5 |
| 20260506020831 | 61 | 223 | 0.9 | 2.6 | 0.00 | 0.24 | 0.24 | 1 | 1006.5 |
| 20260506020635 | 61 | 181 | 0.0 | 0.9 | 0.00 | 0.24 | 0.24 | 1 | 1006.5 |
| 20260506020539 | 61 | 181 | 0.0 | 1.7 | 0.00 | 0.24 | 0.24 | 1 | 1006.4 |
| 20260506020442 | 62 | 181 | 0.0 | 2.6 | 0.00 | 0.24 | 0.24 | 1 | 1006.4 |
| 20260506020408 | 62 | 181 | 0.0 | 2.6 | 0.00 | 0.24 | 0.24 | 1 | 1006.4 |
| 20260506020330 | 62 | 181 | 0.0 | 2.6 | 0.00 | 0.24 | 0.24 | 1 | 1006.4 |
| 20260506020132 | 62 | 181 | 0.0 | 2.6 | 0.00 | 0.24 | 0.24 | 1 | 1006.4 |
| 20260506020056 | 62 | 181 | 0.0 | 2.6 | 0.00 | 0.24 | 0.24 | 1 | 1006.4 |
| 20260506015938 | 62 | 181 | 0.0 | 2.6 | 0.00 | 0.24 | 0.24 | 1 | 1006.5 |
| 20260506015901 | 62 | 181 | 0.0 | 2.6 | 0.00 | 0.24 | 0.24 | 1 | 1006.5 |
| 20260506015817 | 62 | 181 | 0.9 | 2.6 | 0.00 | 0.24 | 0.24 | 1 | 1006.5 |
| 20260506015646 | 62 | 207 | 1.7 | 2.6 | 0.00 | 0.24 | 0.24 | 1 | 1006.5 |
| 20260506015548 | 62 | 207 | 1.7 | 2.6 | 0.00 | 0.24 | 0.24 | 1 | 1006.5 |
| 20260506015510 | 62 | 202 | 1.7 | 2.6 | 0.00 | 0.24 | 0.24 | 1 | 1006.6 |
| 20260506015353 | 62 | 202 | 1.7 | 2.6 | 0.00 | 0.24 | 0.24 | 1 | 1006.6 |
| 20260506015320 | 62 | 200 | 1.7 | 2.6 | 0.00 | 0.24 | 0.24 | 1 | 1006.5 |
| 20260506015124 | 62 | 167 | 0.9 | 4.3 | 0.00 | 0.24 | 0.24 | 1 | 1006.5 |
| 20260506015027 | 62 | 178 | 0.9 | 4.3 | 0.00 | 0.24 | 0.24 | 1 | 1006.5 |
| 20260506014931 | 62 | 178 | 0.9 | 4.3 | 0.00 | 0.24 | 0.24 | 1 | 1006.5 |
| 20260506014853 | 62 | 178 | 1.7 | 4.3 | 0.00 | 0.24 | 0.24 | 1 | 1006.5 |
| 20260506014722 | 62 | 178 | 0.9 | 4.3 | 0.00 | 0.24 | 0.24 | 1 | 1006.5 |
| 20260506014615 | 62 | 137 | 0.9 | 4.3 | 0.00 | 0.24 | 0.24 | 1 | 1006.5 |
| 20260506014426 | 62 | 136 | 2.6 | 4.3 | 0.00 | 0.24 | 0.24 | 1 | 1006.6 |
| 20260506014348 | 62 | 151 | 2.6 | 4.3 | 0.00 | 0.24 | 0.24 | 1 | 1006.7 |
| 20260506014232 | 62 | 163 | 3.5 | 4.3 | 0.00 | 0.24 | 0.24 | 1 | 1006.7 |
| 20260506014156 | 62 | 189 | 2.6 | 4.3 | 0.00 | 0.24 | 0.24 | 1 | 1006.7 |
| 20260506014059 | 62 | 132 | 1.7 | 4.3 | 0.00 | 0.24 | 0.24 | 1 | 1006.7 |
| 20260506013923 | 62 | 181 | 1.7 | 4.3 | 0.00 | 0.24 | 0.24 | 1 | 1006.6 |
| 20260506013839 | 62 | 174 | 0.9 | 4.3 | 0.00 | 0.24 | 0.24 | 1 | 1006.7 |
| 20260506013708 | 62 | 144 | 0.9 | 4.3 | 0.00 | 0.24 | 0.24 | 1 | 1006.7 |
| 20260506013630 | 62 | 144 | 1.7 | 4.3 | 0.00 | 0.24 | 0.24 | 1 | 1006.6 |
| 20260506013434 | 62 | 134 | 2.6 | 4.3 | 0.00 | 0.24 | 0.24 | 1 | 1006.7 |
| 20260506013357 | 62 | 144 | 2.6 | 4.3 | 0.00 | 0.24 | 0.24 | 1 | 1006.7 |
| 20260506013240 | 62 | 163 | 2.6 | 5.2 | 0.00 | 0.24 | 0.24 | 1 | 1006.7 |
| 20260506013207 | 62 | 161 | 2.6 | 5.2 | 0.00 | 0.24 | 0.24 | 1 | 1006.7 |
| 20260506013130 | 62 | 154 | 2.6 | 5.2 | 0.00 | 0.24 | 0.24 | 1 | 1006.6 |
| 20260506012932 | 62 | 178 | 2.6 | 5.2 | 0.00 | 0.24 | 0.24 | 1 | 1006.5 |
| 20260506012855 | 61 | 161 | 2.6 | 5.2 | 0.00 | 0.24 | 0.24 | 1 | 1006.5 |
| 20260506012758 | 62 | 167 | 3.5 | 5.2 | 0.00 | 0.24 | 0.24 | 1 | 1006.6 |
| 20260506012720 | 61 | 157 | 3.5 | 5.2 | 0.00 | 0.24 | 0.24 | 1 | 1006.5 |
| 20260506012550 | 61 | 160 | 3.5 | 5.2 | 0.00 | 0.24 | 0.24 | 1 | 1006.5 |
| 20260506012444 | 61 | 154 | 3.5 | 5.2 | 0.00 | 0.24 | 0.24 | 1 | 1006.5 |
| 20260506012315 | 61 | 217 | 2.6 | 5.2 | 0.00 | 0.24 | 0.24 | 1 | 1006.4 |
| 20260506012236 | 61 | 163 | 1.7 | 5.2 | 0.00 | 0.24 | 0.24 | 1 | 1006.4 |
| 20260506012106 | 61 | 196 | 2.6 | 5.2 | 0.00 | 0.24 | 0.24 | 1 | 1006.4 |
| 20260506012022 | 61 | 236 | 3.5 | 5.2 | 0.00 | 0.24 | 0.24 | 1 | 1006.3 |
| 20260506011837 | 61 | 230 | 1.7 | 5.2 | 0.00 | 0.24 | 0.24 | 1 | 1006.2 |
| 20260506011750 | 61 | 232 | 1.7 | 3.5 | 0.00 | 0.24 | 0.24 | 1 | 1006.2 |
| 20260506011621 | 61 | 192 | 2.6 | 3.5 | 0.00 | 0.24 | 0.24 | 1 | 1006.0 |
| 20260506011542 | 61 | 234 | 1.7 | 3.5 | 0.00 | 0.24 | 0.24 | 1 | 1005.9 |
| 20260506011405 | 61 | 247 | 1.7 | 3.5 | 0.00 | 0.24 | 0.24 | 1 | 1005.8 |
| 20260506011327 | 61 | 247 | 1.7 | 3.5 | 0.00 | 0.24 | 0.24 | 1 | 1005.6 |
| 20260506011138 | 61 | 242 | 0.9 | 3.5 | 0.00 | 0.24 | 0.24 | 1 | 1005.5 |
| 20260506011031 | 61 | 215 | 1.7 | 3.5 | 0.00 | 0.24 | 0.24 | 1 | 1005.6 |
| 20260506010955 | 61 | 215 | 1.7 | 3.5 | 0.00 | 0.24 | 0.24 | 1 | 1005.6 |
| 20260506010858 | 61 | 227 | 0.9 | 3.5 | 0.00 | 0.24 | 0.24 | 1 | 1005.6 |
| 20260506010744 | 61 | 209 | 0.9 | 3.5 | 0.00 | 0.24 | 0.24 | 1 | 1005.6 |
| 20260506010648 | 61 | 194 | 1.7 | 3.5 | 0.00 | 0.24 | 0.24 | 1 | 1005.7 |
| 20260506010529 | 61 | 178 | 1.7 | 2.6 | 0.00 | 0.24 | 0.24 | 1 | 1005.6 |
| 20260506010433 | 61 | 163 | 1.7 | 2.6 | 0.00 | 0.24 | 0.24 | 1 | 1005.5 |
| 20260506010355 | 61 | 134 | 1.7 | 2.6 | 0.00 | 0.24 | 0.24 | 1 | 1005.6 |
| 20260506010201 | 61 | 187 | 1.7 | 2.6 | 0.00 | 0.24 | 0.24 | 1 | 1005.6 |
| 20260506010105 | 61 | 187 | 1.7 | 4.3 | 0.00 | 0.24 | 0.24 | 1 | 1005.6 |
| 20260506010019 | 61 | 187 | 1.7 | 4.3 | 0.00 | 0.24 | 0.24 | 1 | 1005.6 |
| 20260506005830 | 61 | 190 | 0.9 | 4.3 | 0.00 | 0.24 | 0.24 | 1 | 1005.7 |
| 20260506005730 | 61 | 222 | 0.9 | 4.3 | 0.00 | 0.24 | 0.24 | 1 | 1005.7 |
| 20260506005616 | 61 | 254 | 1.7 | 4.3 | 0.00 | 0.24 | 0.24 | 1 | 1005.7 |
| 20260506005551 | 62 | 254 | 1.7 | 4.3 | 0.00 | 0.24 | 0.24 | 1 | 1005.7 |
| 20260506005249 | 62 | 232 | 2.6 | 4.3 | 0.00 | 0.24 | 0.24 | 1 | 1005.6 |
| 20260506005132 | 62 | 208 | 1.7 | 4.3 | 0.00 | 0.24 | 0.24 | 1 | 1005.6 |
| 20260506005032 | 62 | 248 | 1.7 | 4.3 | 0.00 | 0.24 | 0.24 | 1 | 1005.6 |
| 20260506004957 | 62 | 210 | 1.7 | 4.3 | 0.00 | 0.24 | 0.24 | 1 | 1005.6 |
| 20260506004823 | 62 | 242 | 2.6 | 5.2 | 0.00 | 0.24 | 0.24 | 1 | 1005.6 |
| 20260506004739 | 62 | 269 | 2.6 | 6.1 | 0.00 | 0.24 | 0.24 | 1 | 1005.6 |
| 20260506004641 | 62 | 216 | 2.6 | 6.1 | 0.00 | 0.24 | 0.24 | 1 | 1005.6 |
| 20260506004543 | 62 | 193 | 2.6 | 6.1 | 0.00 | 0.24 | 0.24 | 1 | 1005.6 |
| 20260506004444 | 62 | 238 | 2.6 | 6.1 | 0.00 | 0.24 | 0.24 | 1 | 1005.6 |
| 20260506004313 | 62 | 213 | 1.7 | 6.1 | 0.00 | 0.24 | 0.24 | 1 | 1005.5 |
| 20260506004227 | 62 | 217 | 1.7 | 6.1 | 0.00 | 0.24 | 0.24 | 1 | 1005.5 |
| 20260506004056 | 62 | 193 | 2.6 | 6.1 | 0.00 | 0.24 | 0.24 | 1 | 1005.5 |
| 20260506003957 | 62 | 193 | 2.6 | 6.1 | 0.00 | 0.24 | 0.24 | 1 | 1005.5 |
| 20260506003820 | 62 | 189 | 2.6 | 5.2 | 0.00 | 0.24 | 0.24 | 1 | 1005.5 |
| 20260506003746 | 62 | 196 | 3.5 | 5.2 | 0.00 | 0.24 | 0.24 | 1 | 1005.5 |
| 20260506003617 | 62 | 213 | 2.6 | 5.2 | 0.00 | 0.24 | 0.24 | 1 | 1005.5 |
| 20260506003540 | 62 | 182 | 1.7 | 5.2 | 0.00 | 0.24 | 0.24 | 1 | 1005.4 |
| 20260506003403 | 62 | 181 | 1.7 | 5.2 | 0.00 | 0.24 | 0.24 | 1 | 1005.4 |
| 20260506003336 | 62 | 192 | 1.7 | 5.2 | 0.00 | 0.24 | 0.24 | 1 | 1005.4 |
| 20260506003205 | 62 | 201 | 2.6 | 5.2 | 0.00 | 0.24 | 0.24 | 1 | 1005.4 |
| 20260506003120 | 62 | 223 | 2.6 | 5.2 | 0.00 | 0.24 | 0.24 | 1 | 1005.4 |
| 20260506002950 | 62 | 137 | 3.5 | 5.2 | 0.00 | 0.24 | 0.24 | 1 | 1005.5 |
| 20260506002852 | 62 | 189 | 3.5 | 5.2 | 0.00 | 0.24 | 0.24 | 1 | 1005.5 |
| 20260506002807 | 62 | 190 | 2.6 | 7.0 | 0.00 | 0.24 | 0.24 | 1 | 1005.5 |
| 20260506002635 | 62 | 165 | 1.7 | 7.0 | 0.00 | 0.24 | 0.24 | 1 | 1005.5 |
| 20260506002537 | 62 | 177 | 1.7 | 7.0 | 0.00 | 0.24 | 0.24 | 1 | 1005.6 |
| 20260506002323 | 62 | 126 | 1.7 | 7.0 | 0.00 | 0.24 | 0.24 | 1 | 1005.5 |
| 20260506002247 | 62 | 171 | 1.7 | 7.0 | 0.00 | 0.24 | 0.24 | 1 | 1005.5 |
| 20260506002150 | 62 | 158 | 3.5 | 7.0 | 0.00 | 0.24 | 0.24 | 1 | 1005.5 |
| 20260506002029 | 62 | 191 | 4.3 | 7.0 | 0.00 | 0.24 | 0.24 | 1 | 1005.5 |
| 20260506001934 | 62 | 156 | 4.3 | 7.0 | 0.00 | 0.24 | 0.24 | 1 | 1005.5 |
| 20260506001855 | 62 | 159 | 2.6 | 5.2 | 0.00 | 0.24 | 0.24 | 1 | 1005.4 |
| 20260506001756 | 62 | 207 | 3.5 | 5.2 | 0.00 | 0.24 | 0.24 | 1 | 1005.4 |
| 20260506001638 | 62 | 198 | 3.5 | 6.1 | 0.00 | 0.24 | 0.24 | 1 | 1005.4 |
| 20260506001601 | 62 | 242 | 3.5 | 6.1 | 0.00 | 0.24 | 0.24 | 1 | 1005.4 |
| 20260506001516 | 62 | 199 | 2.6 | 5.2 | 0.00 | 0.24 | 0.24 | 1 | 1005.3 |
| 20260506001329 | 62 | 180 | 2.6 | 5.2 | 0.00 | 0.24 | 0.24 | 1 | 1005.4 |
| 20260506001255 | 62 | 177 | 2.6 | 6.1 | 0.00 | 0.24 | 0.24 | 1 | 1005.4 |
| 20260506001215 | 62 | 179 | 1.7 | 6.1 | 0.00 | 0.24 | 0.24 | 1 | 1005.4 |
| 20260506001137 | 62 | 200 | 1.7 | 6.1 | 0.00 | 0.24 | 0.24 | 1 | 1005.3 |
| 20260506001030 | 62 | 185 | 2.6 | 6.1 | 0.00 | 0.24 | 0.24 | 1 | 1005.3 |
| 20260506000840 | 62 | 165 | 2.6 | 6.1 | 0.00 | 0.24 | 0.24 | 1 | 1005.4 |
| 20260506000742 | 62 | 202 | 2.6 | 6.1 | 0.00 | 0.24 | 0.24 | 1 | 1005.3 |
| 20260506000646 | 62 | 195 | 3.5 | 6.1 | 0.00 | 0.24 | 0.24 | 1 | 1005.4 |
| 20260506000528 | 62 | 192 | 4.3 | 6.1 | 0.00 | 0.24 | 0.24 | 1 | 1005.4 |
| 20260506000430 | 62 | 198 | 4.3 | 6.1 | 0.00 | 0.24 | 0.24 | 1 | 1005.3 |
| 20260506000324 | 62 | 196 | 3.5 | 6.1 | 0.00 | 0.24 | 0.24 | 1 | 1005.3 |
| 20260506000227 | 62 | 235 | 2.6 | 6.1 | 0.00 | 0.24 | 0.24 | 1 | 1005.3 |
| 20260506000128 | 62 | 223 | 3.5 | 6.1 | 0.00 | 0.24 | 0.24 | 1 | 1005.2 |
| 20260506000029 | 62 | 225 | 3.5 | 6.1 | 0.00 | 0.24 | 0.24 | 1 | 1005.2 |
| 20260505235832 | 62 | 216 | 2.6 | 6.1 | 0.00 | 0.24 | 0.24 | 1 | 1005.0 |
| 20260505235733 | 62 | 194 | 3.5 | 6.1 | 0.00 | 0.24 | 0.24 | 1 | 1005.0 |
| 20260505235614 | 62 | 225 | 4.3 | 6.1 | 0.00 | 0.24 | 0.24 | 1 | 1005.0 |
| 20260505235536 | 62 | 215 | 3.5 | 7.0 | 0.00 | 0.24 | 0.24 | 1 | 1005.1 |
| 20260505235323 | 62 | 207 | 3.5 | 6.1 | 0.00 | 0.24 | 0.24 | 1 | 1005.0 |
| 20260505235223 | 62 | 225 | 3.5 | 6.1 | 0.00 | 0.24 | 0.24 | 1 | 1005.1 |
| 20260505235126 | 62 | 212 | 3.5 | 6.1 | 0.00 | 0.24 | 0.24 | 1 | 1005.2 |
| 20260505235049 | 62 | 189 | 3.5 | 6.1 | 0.00 | 0.24 | 0.24 | 1 | 1005.2 |
| 20260505235011 | 62 | 229 | 3.5 | 6.1 | 0.00 | 0.24 | 0.24 | 1 | 1005.2 |
| 20260505234835 | 62 | 181 | 3.5 | 6.1 | 0.00 | 0.24 | 0.24 | 1 | 1005.2 |
| 20260505234737 | 62 | 196 | 2.6 | 6.1 | 0.00 | 0.24 | 0.24 | 1 | 1005.1 |
| 20260505234629 | 62 | 197 | 2.6 | 6.1 | 0.00 | 0.24 | 0.24 | 1 | 1005.0 |
| 20260505234550 | 62 | 199 | 2.6 | 6.1 | 0.00 | 0.24 | 0.24 | 1 | 1005.0 |
| 20260505234515 | 62 | 216 | 3.5 | 6.1 | 0.00 | 0.24 | 0.24 | 1 | 1005.0 |
| 20260505234419 | 62 | 172 | 3.5 | 6.1 | 0.00 | 0.24 | 0.24 | 1 | 1005.0 |
| 20260505234340 | 62 | 133 | 3.5 | 6.1 | 0.00 | 0.24 | 0.24 | 1 | 1005.1 |
| 20260505234201 | 62 | 190 | 1.7 | 6.1 | 0.00 | 0.24 | 0.24 | 1 | 1005.2 |
| 20260505234013 | 62 | 185 | 1.7 | 6.1 | 0.00 | 0.24 | 0.24 | 1 | 1005.3 |
| 20260505233928 | 62 | 211 | 2.6 | 6.1 | 0.00 | 0.24 | 0.24 | 1 | 1005.3 |
| 20260505233850 | 62 | 217 | 2.6 | 6.1 | 0.00 | 0.24 | 0.24 | 1 | 1005.3 |
| 20260505233632 | 62 | 217 | 3.5 | 6.1 | 0.00 | 0.24 | 0.24 | 1 | 1005.3 |
| 20260505233533 | 62 | 189 | 3.5 | 6.1 | 0.00 | 0.24 | 0.24 | 1 | 1005.3 |
| 20260505233441 | 62 | 191 | 3.5 | 7.0 | 0.00 | 0.24 | 0.24 | 1 | 1005.2 |
| 20260505233404 | 62 | 171 | 3.5 | 7.0 | 0.00 | 0.24 | 0.24 | 1 | 1005.2 |
| 20260505233325 | 62 | 178 | 3.5 | 7.0 | 0.00 | 0.24 | 0.24 | 1 | 1005.2 |
| 20260505233156 | 62 | 209 | 3.5 | 7.0 | 0.00 | 0.24 | 0.24 | 1 | 1005.2 |
| 20260505233028 | 62 | 180 | 3.5 | 7.0 | 0.00 | 0.24 | 0.24 | 1 | 1005.1 |
| 20260505232952 | 62 | 177 | 3.5 | 7.0 | 0.00 | 0.24 | 0.24 | 1 | 1005.1 |
| 20260505232854 | 62 | 186 | 3.5 | 5.2 | 0.00 | 0.24 | 0.24 | 1 | 1005.0 |
| 20260505232736 | 62 | 183 | 2.6 | 5.2 | 0.00 | 0.24 | 0.24 | 1 | 1005.0 |
| 20260505232650 | 62 | 188 | 2.6 | 5.2 | 0.00 | 0.24 | 0.24 | 1 | 1005.0 |
| 20260505232611 | 62 | 167 | 2.6 | 5.2 | 0.00 | 0.24 | 0.24 | 1 | 1004.9 |
| 20260505232512 | 62 | 193 | 2.6 | 5.2 | 0.00 | 0.24 | 0.24 | 1 | 1004.9 |
| 20260505232421 | 62 | 189 | 2.6 | 5.2 | 0.00 | 0.24 | 0.24 | 1 | 1004.9 |
| 20260505232322 | 62 | 209 | 2.6 | 5.2 | 0.00 | 0.24 | 0.24 | 1 | 1005.0 |
| 20260505232134 | 62 | 160 | 2.6 | 5.2 | 0.00 | 0.24 | 0.24 | 1 | 1005.0 |
| 20260505232048 | 62 | 198 | 2.6 | 5.2 | 0.00 | 0.24 | 0.24 | 1 | 1005.0 |
| 20260505231918 | 62 | 183 | 2.6 | 5.2 | 0.00 | 0.24 | 0.24 | 1 | 1005.0 |
| 20260505231841 | 62 | 211 | 2.6 | 5.2 | 0.00 | 0.24 | 0.24 | 1 | 1005.0 |
| 20260505231642 | 62 | 232 | 0.9 | 4.3 | 0.00 | 0.24 | 0.24 | 1 | 1004.9 |
| 20260505231542 | 62 | 232 | 0.9 | 4.3 | 0.00 | 0.24 | 0.24 | 1 | 1004.9 |
| 20260505231448 | 62 | 232 | 0.9 | 4.3 | 0.00 | 0.24 | 0.24 | 1 | 1004.8 |
| 20260505231348 | 62 | 214 | 0.9 | 4.3 | 0.00 | 0.24 | 0.24 | 1 | 1004.8 |
| 20260505231219 | 62 | 209 | 0.9 | 4.3 | 0.00 | 0.24 | 0.24 | 1 | 1004.8 |
| 20260505231138 | 62 | 209 | 1.7 | 5.2 | 0.00 | 0.24 | 0.24 | 1 | 1004.8 |
| 20260505231008 | 62 | 171 | 2.6 | 5.2 | 0.00 | 0.24 | 0.24 | 1 | 1004.8 |
| 20260505230930 | 62 | 178 | 1.7 | 5.2 | 0.00 | 0.24 | 0.24 | 1 | 1004.8 |
| 20260505230733 | 62 | 225 | 2.6 | 5.2 | 0.00 | 0.24 | 0.24 | 1 | 1004.7 |
| 20260505230634 | 62 | 213 | 2.6 | 5.2 | 0.00 | 0.24 | 0.24 | 1 | 1004.7 |
| 20260505230537 | 62 | 232 | 2.6 | 5.2 | 0.00 | 0.24 | 0.24 | 1 | 1004.7 |
| 20260505230459 | 62 | 215 | 2.6 | 5.2 | 0.00 | 0.24 | 0.24 | 1 | 1004.7 |
| 20260505230422 | 62 | 215 | 2.6 | 7.0 | 0.00 | 0.24 | 0.24 | 1 | 1004.7 |
| 20260505230223 | 62 | 212 | 1.7 | 7.0 | 0.00 | 0.24 | 0.24 | 1 | 1004.7 |
| 20260505230146 | 62 | 229 | 1.7 | 7.0 | 0.00 | 0.24 | 0.24 | 1 | 1004.7 |
| 20260505230034 | 62 | 182 | 2.6 | 7.0 | 0.00 | 0.24 | 0.24 | 1 | 1004.6 |
| 20260505225957 | 62 | 194 | 2.6 | 7.0 | 0.00 | 0.24 | 0.24 | 1 | 1004.6 |
| 20260505225913 | 62 | 211 | 2.6 | 7.0 | 0.00 | 0.24 | 0.24 | 1 | 1004.6 |
| 20260505225732 | 62 | 221 | 3.5 | 7.0 | 0.00 | 0.24 | 0.24 | 1 | 1004.6 |
| 20260505225633 | 62 | 225 | 3.5 | 7.0 | 0.00 | 0.24 | 0.24 | 1 | 1004.6 |
| 20260505225435 | 62 | 125 | 2.6 | 4.3 | 0.00 | 0.24 | 0.24 | 1 | 1004.7 |
| 20260505225359 | 62 | 168 | 1.7 | 4.3 | 0.00 | 0.24 | 0.24 | 1 | 1004.7 |
| 20260505225222 | 62 | 178 | 1.7 | 4.3 | 0.00 | 0.24 | 0.24 | 1 | 1004.7 |
| 20260505225138 | 62 | 206 | 2.6 | 4.3 | 0.00 | 0.24 | 0.24 | 1 | 1004.7 |
| 20260505224950 | 62 | 172 | 1.7 | 5.2 | 0.00 | 0.24 | 0.24 | 1 | 1004.7 |
| 20260505224911 | 62 | 180 | 1.7 | 6.1 | 0.00 | 0.24 | 0.24 | 1 | 1004.7 |
| 20260505224742 | 62 | 190 | 2.6 | 7.0 | 0.00 | 0.24 | 0.24 | 1 | 1004.7 |
| 20260505224637 | 62 | 234 | 2.6 | 7.0 | 0.00 | 0.24 | 0.24 | 1 | 1004.7 |
| 20260505224506 | 62 | 218 | 1.7 | 7.0 | 0.00 | 0.24 | 0.24 | 1 | 1004.7 |
| 20260505224429 | 62 | 184 | 1.7 | 7.0 | 0.00 | 0.24 | 0.24 | 1 | 1004.7 |
| 20260505224232 | 62 | 238 | 3.5 | 7.0 | 0.00 | 0.24 | 0.24 | 1 | 1004.7 |
| 20260505224155 | 62 | 209 | 3.5 | 7.0 | 0.00 | 0.24 | 0.24 | 1 | 1004.7 |
| 20260505224100 | 62 | 228 | 3.5 | 7.0 | 0.00 | 0.24 | 0.24 | 1 | 1004.7 |
| 20260505224022 | 62 | 219 | 3.5 | 7.0 | 0.00 | 0.24 | 0.24 | 1 | 1004.7 |
| 20260505223834 | 62 | 217 | 3.5 | 6.1 | 0.00 | 0.24 | 0.24 | 1 | 1004.6 |
| 20260505223730 | 62 | 190 | 3.5 | 6.1 | 0.00 | 0.24 | 0.24 | 1 | 1004.5 |
| 20260505223654 | 62 | 233 | 2.6 | 6.1 | 0.00 | 0.24 | 0.24 | 1 | 1004.5 |
| 20260505223539 | 62 | 246 | 2.6 | 6.1 | 0.00 | 0.24 | 0.24 | 1 | 1004.5 |
| 20260505223459 | 62 | 244 | 1.7 | 5.2 | 0.00 | 0.24 | 0.24 | 1 | 1004.5 |
| 20260505223341 | 62 | 198 | 2.6 | 5.2 | 0.00 | 0.24 | 0.24 | 1 | 1004.5 |
| 20260505223244 | 62 | 248 | 2.6 | 5.2 | 0.00 | 0.24 | 0.24 | 1 | 1004.5 |
| 20260505223120 | 62 | 246 | 1.7 | 7.8 | 0.00 | 0.24 | 0.24 | 1 | 1004.4 |
| 20260505223034 | 62 | 252 | 1.7 | 7.8 | 0.00 | 0.24 | 0.24 | 1 | 1004.5 |
| 20260505222959 | 62 | 229 | 2.6 | 7.8 | 0.00 | 0.24 | 0.24 | 1 | 1004.4 |
| 20260505222807 | 62 | 252 | 2.6 | 7.8 | 0.00 | 0.24 | 0.24 | 1 | 1004.4 |
| 20260505222721 | 62 | 248 | 2.6 | 7.8 | 0.00 | 0.24 | 0.24 | 1 | 1004.3 |
| 20260505222551 | 62 | 188 | 3.5 | 7.8 | 0.00 | 0.24 | 0.24 | 1 | 1004.4 |
| 20260505222453 | 62 | 224 | 4.3 | 7.8 | 0.00 | 0.24 | 0.24 | 1 | 1004.5 |
| 20260505222236 | 62 | 238 | 3.5 | 7.8 | 0.00 | 0.24 | 0.24 | 1 | 1004.6 |
| 20260505222138 | 62 | 165 | 2.6 | 6.1 | 0.00 | 0.24 | 0.24 | 1 | 1004.6 |
| 20260505222041 | 62 | 225 | 3.5 | 6.1 | 0.00 | 0.24 | 0.24 | 1 | 1004.6 |
| 20260505222002 | 61 | 207 | 3.5 | 6.1 | 0.00 | 0.24 | 0.24 | 1 | 1004.6 |
| 20260505221833 | 61 | 219 | 3.5 | 6.1 | 0.00 | 0.24 | 0.24 | 1 | 1004.8 |
| 20260505221727 | 62 | 204 | 3.5 | 6.1 | 0.00 | 0.24 | 0.24 | 1 | 1004.9 |
| 20260505221542 | 62 | 229 | 3.5 | 6.1 | 0.00 | 0.24 | 0.24 | 1 | 1005.1 |
| 20260505221457 | 62 | 210 | 3.5 | 6.1 | 0.00 | 0.24 | 0.24 | 1 | 1005.1 |
| 20260505221327 | 62 | 202 | 2.6 | 6.1 | 0.00 | 0.24 | 0.24 | 1 | 1005.1 |
| 20260505221227 | 62 | 196 | 2.6 | 6.1 | 0.00 | 0.24 | 0.24 | 1 | 1005.1 |
| 20260505221029 | 62 | 175 | 2.6 | 6.1 | 0.00 | 0.24 | 0.24 | 1 | 1005.0 |
| 20260505220952 | 62 | 197 | 3.5 | 6.1 | 0.00 | 0.24 | 0.24 | 1 | 1005.0 |
| 20260505220834 | 62 | 201 | 3.5 | 6.1 | 0.00 | 0.24 | 0.24 | 1 | 1004.9 |
| 20260505220757 | 62 | 232 | 2.6 | 7.8 | 0.00 | 0.24 | 0.24 | 1 | 1004.9 |
| 20260505220606 | 62 | 207 | 3.5 | 9.6 | 0.00 | 0.24 | 0.24 | 1 | 1004.9 |
| 20260505220442 | 62 | 189 | 2.6 | 9.6 | 0.00 | 0.24 | 0.24 | 1 | 1004.9 |
| 20260505220325 | 62 | 223 | 2.6 | 9.6 | 0.00 | 0.24 | 0.24 | 1 | 1004.9 |
| 20260505220247 | 62 | 211 | 2.6 | 9.6 | 0.00 | 0.24 | 0.24 | 1 | 1004.9 |
| 20260505220117 | 62 | 227 | 3.5 | 9.6 | 0.00 | 0.24 | 0.24 | 1 | 1004.7 |
| 20260505220033 | 62 | 223 | 3.5 | 9.6 | 0.00 | 0.24 | 0.24 | 1 | 1004.7 |
| 20260505215842 | 62 | 144 | 5.2 | 9.6 | 0.00 | 0.24 | 0.24 | 1 | 1004.6 |
| 20260505215757 | 62 | 181 | 4.3 | 9.6 | 0.00 | 0.24 | 0.24 | 1 | 1004.6 |
| 20260505215626 | 62 | 213 | 2.6 | 6.1 | 0.00 | 0.24 | 0.24 | 1 | 1004.5 |
| 20260505215527 | 62 | 155 | 2.6 | 6.1 | 0.00 | 0.24 | 0.24 | 1 | 1004.4 |
| 20260505215330 | 62 | 231 | 2.6 | 5.2 | 0.00 | 0.24 | 0.24 | 1 | 1004.4 |
| 20260505215255 | 62 | 201 | 1.7 | 5.2 | 0.00 | 0.24 | 0.24 | 1 | 1004.4 |
| 20260505215158 | 62 | 208 | 2.6 | 5.2 | 0.01 | 0.24 | 0.24 | 1 | 1004.4 |
| 20260505215100 | 62 | 207 | 2.6 | 6.1 | 0.01 | 0.24 | 0.24 | 1 | 1004.4 |
| 20260505215022 | 62 | 188 | 2.6 | 5.2 | 0.01 | 0.24 | 0.24 | 1 | 1004.3 |
| 20260505214826 | 62 | 207 | 1.7 | 5.2 | 0.04 | 0.24 | 0.24 | 1 | 1004.3 |
| 20260505214727 | 62 | 217 | 2.6 | 5.2 | 0.05 | 0.24 | 0.24 | 1 | 1004.4 |
| 20260505214630 | 62 | 203 | 2.6 | 5.2 | 0.07 | 0.24 | 0.24 | 1 | 1004.4 |
| 20260505214550 | 62 | 199 | 2.6 | 8.7 | 0.10 | 0.24 | 0.24 | 1 | 1004.3 |
| 20260505214451 | 62 | 236 | 3.5 | 8.7 | 0.10 | 0.24 | 0.24 | 1 | 1004.3 |
| 20260505214336 | 62 | 181 | 3.5 | 8.7 | 0.10 | 0.24 | 0.24 | 1 | 1004.4 |
| 20260505214302 | 62 | 207 | 3.5 | 8.7 | 0.10 | 0.24 | 0.24 | 1 | 1004.4 |
| 20260505214216 | 62 | 182 | 3.5 | 8.7 | 0.10 | 0.24 | 0.24 | 1 | 1004.4 |
| 20260505214026 | 62 | 229 | 3.5 | 9.6 | 0.10 | 0.24 | 0.24 | 1 | 1004.4 |
| 20260505213941 | 62 | 214 | 3.5 | 9.6 | 0.10 | 0.24 | 0.24 | 1 | 1004.3 |
| 20260505213810 | 62 | 218 | 4.3 | 9.6 | 0.11 | 0.24 | 0.24 | 1 | 1004.3 |
| 20260505213731 | 62 | 218 | 3.5 | 9.6 | 0.12 | 0.24 | 0.24 | 1 | 1004.3 |
| 20260505213535 | 62 | 221 | 3.5 | 9.6 | 0.17 | 0.24 | 0.24 | 1 | 1004.1 |
| 20260505213459 | 62 | 211 | 3.5 | 9.6 | 0.17 | 0.24 | 0.24 | 1 | 1004.1 |
| 20260505213404 | 62 | 94 | 3.5 | 9.6 | 0.17 | 0.24 | 0.24 | 1 | 1004.2 |
| 20260505213324 | 62 | 171 | 2.6 | 9.6 | 0.17 | 0.24 | 0.24 | 1 | 1004.2 |
| 20260505213139 | 62 | 240 | 1.7 | 4.3 | 0.17 | 0.24 | 0.24 | 1 | 1004.2 |
| 20260505213032 | 62 | 260 | 2.6 | 3.5 | 0.17 | 0.24 | 0.24 | 1 | 1004.3 |
| 20260505212956 | 62 | 233 | 1.7 | 3.5 | 0.17 | 0.24 | 0.24 | 1 | 1004.3 |
| 20260505212900 | 62 | 242 | 1.7 | 4.3 | 0.17 | 0.24 | 0.24 | 1 | 1004.3 |
| 20260505212822 | 62 | 199 | 1.7 | 4.3 | 0.17 | 0.24 | 0.24 | 1 | 1004.3 |
| 20260505212626 | 62 | 171 | 0.9 | 3.5 | 0.17 | 0.24 | 0.24 | 1 | 1004.3 |
| 20260505212528 | 62 | 171 | 0.9 | 3.5 | 0.17 | 0.24 | 0.24 | 1 | 1004.4 |
| 20260505212431 | 62 | 170 | 1.7 | 5.2 | 0.17 | 0.24 | 0.24 | 1 | 1004.4 |
| 20260505212354 | 62 | 201 | 1.7 | 5.2 | 0.17 | 0.24 | 0.24 | 1 | 1004.4 |
| 20260505212316 | 62 | 201 | 1.7 | 5.2 | 0.17 | 0.24 | 0.24 | 1 | 1004.4 |
| 20260505212151 | 62 | 223 | 1.7 | 5.2 | 0.17 | 0.24 | 0.24 | 1 | 1004.4 |
| 20260505212024 | 62 | 210 | 1.7 | 5.2 | 0.17 | 0.24 | 0.24 | 1 | 1004.4 |
| 20260505211946 | 62 | 183 | 1.7 | 5.2 | 0.17 | 0.24 | 0.24 | 1 | 1004.4 |
| 20260505211850 | 62 | 150 | 1.7 | 5.2 | 0.17 | 0.24 | 0.24 | 1 | 1004.3 |
| 20260505211751 | 62 | 138 | 1.7 | 5.2 | 0.17 | 0.24 | 0.24 | 1 | 1004.3 |
| 20260505211622 | 62 | 164 | 1.7 | 4.3 | 0.17 | 0.24 | 0.24 | 1 | 1004.4 |
| 20260505211537 | 62 | 152 | 0.9 | 4.3 | 0.17 | 0.24 | 0.24 | 1 | 1004.4 |
| 20260505211407 | 62 | 175 | 1.7 | 4.3 | 0.17 | 0.24 | 0.24 | 1 | 1004.4 |
| 20260505211330 | 62 | 175 | 1.7 | 4.3 | 0.17 | 0.24 | 0.24 | 1 | 1004.4 |
| 20260505211132 | 62 | 154 | 1.7 | 4.3 | 0.17 | 0.24 | 0.24 | 1 | 1004.4 |
| 20260505211056 | 62 | 167 | 1.7 | 4.3 | 0.17 | 0.24 | 0.24 | 1 | 1004.4 |
| 20260505210943 | 62 | 192 | 2.6 | 4.3 | 0.17 | 0.24 | 0.24 | 1 | 1004.4 |
| 20260505210846 | 62 | 197 | 2.6 | 4.3 | 0.17 | 0.24 | 0.24 | 1 | 1004.4 |
| 20260505210729 | 62 | 207 | 2.6 | 4.3 | 0.17 | 0.24 | 0.24 | 1 | 1004.4 |
| 20260505210649 | 62 | 159 | 2.6 | 5.2 | 0.17 | 0.24 | 0.24 | 1 | 1004.4 |
| 20260505210459 | 62 | 165 | 0.9 | 4.3 | 0.17 | 0.24 | 0.24 | 1 | 1004.3 |
| 20260505210414 | 62 | 167 | 0.9 | 4.3 | 0.17 | 0.24 | 0.24 | 1 | 1004.3 |
| 20260505210224 | 62 | 121 | 1.7 | 4.3 | 0.17 | 0.24 | 0.24 | 1 | 1004.2 |
| 20260505210138 | 62 | 152 | 1.7 | 3.5 | 0.17 | 0.24 | 0.24 | 1 | 1004.3 |
| 20260505210008 | 63 | 175 | 0.9 | 7.8 | 0.17 | 0.24 | 0.24 | 1 | 1004.2 |
| 20260505205930 | 63 | 175 | 0.9 | 7.8 | 0.17 | 0.24 | 0.24 | 1 | 1004.1 |
| 20260505205735 | 63 | 192 | 0.9 | 7.8 | 0.17 | 0.24 | 0.24 | 1 | 1004.2 |
| 20260505205659 | 63 | 153 | 1.7 | 7.8 | 0.17 | 0.24 | 0.24 | 1 | 1004.2 |
| 20260505205603 | 63 | 175 | 1.7 | 7.8 | 0.17 | 0.24 | 0.24 | 1 | 1004.3 |
| 20260505205442 | 63 | 129 | 2.6 | 7.8 | 0.17 | 0.24 | 0.24 | 1 | 1004.3 |
| 20260505205346 | 63 | 151 | 4.3 | 7.8 | 0.17 | 0.24 | 0.24 | 1 | 1004.4 |
| 20260505205227 | 63 | 144 | 4.3 | 7.8 | 0.17 | 0.24 | 0.24 | 1 | 1004.4 |
| 20260505205141 | 63 | 163 | 3.5 | 7.8 | 0.16 | 0.23 | 0.23 | 1 | 1004.4 |
| 20260505205044 | 63 | 198 | 1.7 | 5.2 | 0.16 | 0.23 | 0.23 | 1 | 1004.4 |
| 20260505204926 | 63 | 132 | 1.7 | 5.2 | 0.14 | 0.21 | 0.21 | 1 | 1004.0 |
| 20260505204828 | 63 | 209 | 0.9 | 8.7 | 0.12 | 0.19 | 0.19 | 1 | 1004.1 |
| 20260505204750 | 63 | 126 | 1.7 | 8.7 | 0.12 | 0.19 | 0.19 | 1 | 1004.1 |
| 20260505204709 | 63 | 125 | 2.6 | 8.7 | 0.11 | 0.18 | 0.18 | 1 | 1004.2 |
| 20260505204632 | 63 | 196 | 3.5 | 8.7 | 0.08 | 0.15 | 0.15 | 1 | 1004.4 |
| 20260505204515 | 63 | 206 | 3.5 | 8.7 | 0.07 | 0.14 | 0.14 | 1 | 1004.3 |
| 20260505204437 | 64 | 169 | 2.6 | 8.7 | 0.07 | 0.14 | 0.14 | 1 | 1004.2 |
| 20260505204307 | 64 | 184 | 2.6 | 8.7 | 0.07 | 0.14 | 0.14 | 1 | 1004.2 |
| 20260505204223 | 64 | 243 | 2.6 | 8.7 | 0.07 | 0.14 | 0.14 | 1 | 1004.1 |
| 20260505204033 | 64 | 140 | 6.1 | 9.6 | 0.07 | 0.14 | 0.14 | 1 | 1004.2 |
| 20260505203947 | 64 | 171 | 5.2 | 8.7 | 0.06 | 0.13 | 0.13 | 1 | 1004.2 |
| 20260505203822 | 65 | 175 | 5.2 | 12.2 | 0.06 | 0.13 | 0.13 | 1 | 1004.0 |
| 20260505203723 | 65 | 130 | 5.2 | 12.2 | 0.05 | 0.12 | 0.12 | 1 | 1004.0 |
| 20260505203529 | 65 | 175 | 4.3 | 12.2 | 0.00 | 0.07 | 0.07 | 1 | 1004.1 |
| 20260505203431 | 66 | 140 | 5.2 | 12.2 | 0.00 | 0.07 | 0.07 | 2 | 1004.1 |
| 20260505203333 | 66 | 190 | 6.1 | 12.2 | 0.01 | 0.07 | 0.07 | 4 | 1004.0 |
| 20260505203256 | 66 | 136 | 6.1 | 12.2 | 0.01 | 0.07 | 0.07 | 7 | 1004.0 |
| 20260505203125 | 66 | 192 | 6.1 | 12.2 | 0.01 | 0.07 | 0.07 | 9 | 1003.8 |
| 20260505203037 | 66 | 165 | 4.3 | 11.3 | 0.01 | 0.07 | 0.07 | 11 | 1003.7 |
| 20260505202906 | 66 | 150 | 3.5 | 10.4 | 0.01 | 0.07 | 0.07 | 10 | 1003.7 |
| 20260505202803 | 66 | 159 | 4.3 | 10.4 | 0.01 | 0.07 | 0.07 | 10 | 1003.7 |
| 20260505202627 | 67 | 115 | 4.3 | 10.4 | 0.01 | 0.07 | 0.07 | 13 | 1003.9 |
| 20260505202542 | 67 | 169 | 5.2 | 10.4 | 0.01 | 0.07 | 0.07 | 16 | 1003.9 |
| 20260505202411 | 67 | 158 | 7.0 | 10.4 | 0.01 | 0.07 | 0.07 | 11 | 1004.0 |
| 20260505202335 | 67 | 181 | 5.2 | 10.4 | 0.01 | 0.07 | 0.07 | 4 | 1004.1 |
| 20260505202136 | 67 | 233 | 1.7 | 8.7 | 0.01 | 0.07 | 0.07 | 3 | 1003.9 |
| 20260505202100 | 67 | 259 | 2.6 | 8.7 | 0.01 | 0.07 | 0.07 | 4 | 1003.9 |
| 20260505202003 | 67 | 239 | 3.5 | 8.7 | 0.01 | 0.07 | 0.07 | 4 | 1003.9 |
| 20260505201904 | 67 | 270 | 4.3 | 8.7 | 0.01 | 0.07 | 0.07 | 7 | 1003.9 |
| 20260505201838 | 67 | 272 | 3.5 | 7.8 | 0.01 | 0.07 | 0.07 | 7 | 1003.7 |
| 20260505201637 | 67 | 256 | 4.3 | 7.8 | 0.01 | 0.07 | 0.07 | 16 | 1003.1 |
| 20260505201542 | 67 | 242 | 4.3 | 8.7 | 0.01 | 0.07 | 0.07 | 14 | 1003.0 |
| 20260505201446 | 67 | 242 | 4.3 | 8.7 | 0.02 | 0.07 | 0.07 | 14 | 1002.9 |
| 20260505201328 | 67 | 163 | 4.3 | 8.7 | 0.05 | 0.07 | 0.07 | 13 | 1002.8 |
| 20260505201241 | 67 | 155 | 4.3 | 8.7 | 0.05 | 0.07 | 0.07 | 11 | 1002.8 |
| 20260505201144 | 67 | 186 | 4.3 | 9.6 | 0.06 | 0.07 | 0.07 | 6 | 1002.8 |
| 20260505201037 | 67 | 196 | 3.5 | 8.7 | 0.06 | 0.07 | 0.07 | 3 | 1003.0 |
| 20260505200924 | 67 | 218 | 2.6 | 8.7 | 0.06 | 0.07 | 0.07 | 4 | 1003.0 |
| 20260505200844 | 67 | 142 | 4.3 | 8.7 | 0.06 | 0.07 | 0.07 | 9 | 1003.0 |
| 20260505200714 | 67 | 188 | 4.3 | 8.7 | 0.06 | 0.07 | 0.07 | 7 | 1002.9 |
| 20260505200605 | 66 | 183 | 4.3 | 8.7 | 0.06 | 0.07 | 0.07 | 4 | 1002.9 |
| 20260505200414 | 66 | 161 | 3.5 | 7.8 | 0.06 | 0.07 | 0.07 | 1 | 1003.0 |
| 20260505200336 | 66 | 155 | 2.6 | 7.8 | 0.06 | 0.07 | 0.07 | 1 | 1003.0 |
| 20260505200138 | 66 | 200 | 2.6 | 8.7 | 0.06 | 0.07 | 0.07 | 1 | 1002.8 |
| 20260505200005 | 66 | 167 | 2.6 | 8.7 | 0.06 | 0.07 | 0.07 | 1 | 1002.8 |
| 20260505195926 | 66 | 132 | 2.6 | 8.7 | 0.06 | 0.07 | 0.07 | 1 | 1002.8 |
| 20260505195738 | 66 | 165 | 3.5 | 8.7 | 0.06 | 0.07 | 0.07 | 1 | 1003.0 |
| 20260505195622 | 66 | 182 | 2.6 | 9.6 | 0.06 | 0.07 | 0.07 | 1 | 1003.0 |
| 20260505195547 | 66 | 232 | 2.6 | 9.6 | 0.06 | 0.07 | 0.07 | 1 | 1003.0 |
| 20260505195501 | 66 | 201 | 4.3 | 9.6 | 0.06 | 0.07 | 0.07 | 1 | 1003.0 |
| 20260505195331 | 66 | 143 | 4.3 | 9.6 | 0.06 | 0.07 | 0.07 | 1 | 1003.0 |
| 20260505195231 | 66 | 141 | 5.2 | 9.6 | 0.06 | 0.07 | 0.07 | 1 | 1002.9 |
| 20260505195034 | 66 | 181 | 3.5 | 9.6 | 0.06 | 0.07 | 0.07 | 1 | 1003.0 |
| 20260505194958 | 66 | 179 | 4.3 | 9.6 | 0.06 | 0.07 | 0.07 | 1 | 1003.0 |
| 20260505194904 | 66 | 171 | 2.6 | 9.6 | 0.06 | 0.07 | 0.07 | 1 | 1003.0 |
| 20260505194825 | 66 | 186 | 1.7 | 8.7 | 0.06 | 0.07 | 0.07 | 1 | 1003.0 |
| 20260505194630 | 66 | 118 | 2.6 | 8.7 | 0.06 | 0.07 | 0.07 | 1 | 1003.1 |
| 20260505194531 | 66 | 120 | 2.6 | 8.7 | 0.06 | 0.07 | 0.07 | 1 | 1003.0 |
| 20260505194438 | 66 | 140 | 2.6 | 8.7 | 0.06 | 0.07 | 0.07 | 1 | 1003.0 |
| 20260505194329 | 66 | 164 | 2.6 | 8.7 | 0.06 | 0.07 | 0.07 | 1 | 1003.0 |
| 20260505194233 | 66 | 162 | 2.6 | 8.7 | 0.06 | 0.07 | 0.07 | 1 | 1003.0 |
| 20260505194155 | 66 | 194 | 2.6 | 8.7 | 0.06 | 0.07 | 0.07 | 1 | 1003.0 |
| 20260505194116 | 66 | 186 | 4.3 | 8.7 | 0.06 | 0.07 | 0.07 | 1 | 1003.0 |
| 20260505193939 | 66 | 205 | 5.2 | 8.7 | 0.06 | 0.07 | 0.07 | 1 | 1003.0 |
| 20260505193902 | 66 | 159 | 4.3 | 7.8 | 0.06 | 0.07 | 0.07 | 1 | 1003.0 |
| 20260505193816 | 66 | 155 | 5.2 | 7.8 | 0.06 | 0.07 | 0.07 | 1 | 1003.0 |
| 20260505193647 | 66 | 116 | 4.3 | 7.8 | 0.07 | 0.07 | 0.07 | 1 | 1002.9 |
| 20260505193530 | 66 | 144 | 4.3 | 7.8 | 0.07 | 0.07 | 0.07 | 1 | 1002.8 |
| 20260505193437 | 66 | 138 | 4.3 | 7.8 | 0.07 | 0.07 | 0.07 | 1 | 1002.8 |
| 20260505193359 | 66 | 122 | 4.3 | 7.8 | 0.06 | 0.06 | 0.06 | 1 | 1002.7 |
| 20260505193222 | 66 | 119 | 5.2 | 7.8 | 0.06 | 0.06 | 0.06 | 1 | 1002.7 |
| 20260505193143 | 66 | 139 | 4.3 | 7.0 | 0.06 | 0.06 | 0.06 | 1 | 1002.7 |
| 20260505193045 | 66 | 144 | 4.3 | 7.0 | 0.06 | 0.06 | 0.06 | 1 | 1002.7 |
| 20260505192949 | 66 | 177 | 3.5 | 7.8 | 0.06 | 0.06 | 0.06 | 7 | 1002.7 |
| 20260505192908 | 66 | 158 | 3.5 | 7.8 | 0.06 | 0.06 | 0.06 | 2 | 1002.6 |
| 20260505192736 | 67 | 161 | 2.6 | 7.8 | 0.06 | 0.06 | 0.06 | 10 | 1002.7 |
| 20260505192627 | 67 | 158 | 0.9 | 8.7 | 0.06 | 0.06 | 0.06 | 10 | 1002.6 |
| 20260505192433 | 67 | 219 | 3.5 | 14.8 | 0.06 | 0.06 | 0.06 | 17 | 1002.6 |
| 20260505192350 | 67 | 250 | 4.3 | 14.8 | 0.06 | 0.06 | 0.06 | 19 | 1002.6 |
| 20260505192315 | 67 | 215 | 5.2 | 14.8 | 0.06 | 0.06 | 0.06 | 19 | 1002.5 |
| 20260505192126 | 67 | 219 | 4.3 | 14.8 | 0.06 | 0.06 | 0.06 | 25 | 1002.5 |
| 20260505192040 | 67 | 194 | 5.2 | 14.8 | 0.06 | 0.06 | 0.06 | 25 | 1002.3 |
| 20260505191944 | 67 | 169 | 6.1 | 14.8 | 0.06 | 0.06 | 0.06 | 27 | 1002.3 |
| 20260505191859 | 68 | 204 | 7.0 | 14.8 | 0.06 | 0.06 | 0.06 | 26 | 1002.2 |
| 20260505191822 | 68 | 188 | 7.0 | 14.8 | 0.06 | 0.06 | 0.06 | 28 | 1002.2 |
| 20260505191624 | 69 | 243 | 6.1 | 12.2 | 0.06 | 0.06 | 0.06 | 34 | 1002.3 |
| 20260505191525 | 69 | 172 | 7.0 | 12.2 | 0.05 | 0.05 | 0.05 | 34 | 1002.2 |
| 20260505191427 | 70 | 197 | 6.1 | 12.2 | 0.04 | 0.04 | 0.04 | 36 | 1002.3 |
| 20260505191335 | 70 | 259 | 6.1 | 12.2 | 0.03 | 0.03 | 0.03 | 36 | 1002.3 |
| 20260505191219 | 70 | 270 | 5.2 | 11.3 | 0.01 | 0.01 | 0.01 | 41 | 1002.6 |
| 20260505191132 | 70 | 319 | 4.3 | 9.6 | 0.01 | 0.01 | 0.01 | 41 | 1002.2 |
| 20260505191054 | 70 | 269 | 4.3 | 9.6 | 0.01 | 0.01 | 0.01 | 41 | 1002.2 |
| 20260505190925 | 70 | 317 | 3.5 | 8.7 | 0.01 | 0.01 | 0.01 | 39 | 1002.1 |
| 20260505190818 | 69 | 318 | 4.3 | 7.8 | 0.01 | 0.01 | 0.01 | 39 | 1002.1 |
| 20260505190626 | 69 | 250 | 3.5 | 7.8 | 0.01 | 0.01 | 0.01 | 34 | 1001.9 |
| 20260505190551 | 69 | 291 | 2.6 | 5.2 | 0.01 | 0.01 | 0.01 | 34 | 1001.9 |
| 20260505190504 | 69 | 301 | 1.7 | 6.1 | 0.01 | 0.01 | 0.01 | 28 | 1001.6 |
| 20260505190316 | 69 | 138 | 0.9 | 3.5 | 0.01 | 0.01 | 0.01 | 24 | 1001.4 |
| 20260505190227 | 69 | 147 | 1.7 | 3.5 | 0.01 | 0.01 | 0.01 | 24 | 1001.3 |
| 20260505190120 | 69 | 355 | 1.7 | 3.5 | 0.01 | 0.01 | 0.01 | 22 | 1001.1 |
| 20260505190021 | 69 | 34 | 1.7 | 3.5 | 0.01 | 0.01 | 0.01 | 19 | 1001.1 |
| 20260505185823 | 70 | 105 | 0.9 | 1.7 | 0.01 | 0.01 | 0.01 | 5 | 1001.0 |
| 20260505185734 | 70 | 105 | 0.9 | 3.5 | 0.01 | 0.01 | 0.01 | 2 | 1000.9 |
| 20260505185638 | 70 | 105 | 0.0 | 5.2 | 0.01 | 0.01 | 0.01 | 8 | 1000.9 |
| 20260505185600 | 70 | 105 | 0.0 | 5.2 | 0.01 | 0.01 | 0.01 | 8 | 1000.9 |
| 20260505185518 | 70 | 105 | 0.9 | 5.2 | 0.01 | 0.01 | 0.01 | 13 | 1000.8 |
| 20260505185324 | 70 | 105 | 0.0 | 5.2 | 0.01 | 0.01 | 0.01 | 20 | 1000.8 |
| 20260505185239 | 70 | 105 | 0.0 | 5.2 | 0.01 | 0.01 | 0.01 | 23 | 1000.7 |
| 20260505185108 | 70 | 105 | 0.9 | 5.2 | 0.01 | 0.01 | 0.01 | 26 | 1000.8 |
| 20260505185031 | 70 | 105 | 1.7 | 5.2 | 0.01 | 0.01 | 0.01 | 28 | 1000.8 |
| 20260505184833 | 71 | 98 | 1.7 | 7.8 | 0.01 | 0.01 | 0.01 | 28 | 1000.9 |
| 20260505184756 | 71 | 111 | 1.7 | 7.8 | 0.01 | 0.01 | 0.01 | 34 | 1000.9 |
| 20260505184639 | 71 | 77 | 2.6 | 7.8 | 0.01 | 0.01 | 0.01 | 42 | 1000.8 |
| 20260505184559 | 71 | 113 | 2.6 | 7.8 | 0.01 | 0.01 | 0.01 | 47 | 1000.9 |
| 20260505184422 | 71 | 231 | 2.6 | 14.8 | 0.01 | 0.01 | 0.01 | 47 | 1000.9 |
| 20260505184346 | 71 | 189 | 2.6 | 14.8 | 0.01 | 0.01 | 0.01 | 47 | 1000.9 |
| 20260505184312 | 71 | 212 | 1.7 | 14.8 | 0.01 | 0.01 | 0.01 | 47 | 1001.0 |
| 20260505184216 | 71 | 202 | 2.6 | 14.8 | 0.01 | 0.01 | 0.01 | 48 | 1001.0 |
| 20260505184139 | 71 | 203 | 3.5 | 14.8 | 0.01 | 0.01 | 0.01 | 49 | 1001.0 |
| 20260505184008 | 72 | 187 | 4.3 | 14.8 | 0.01 | 0.01 | 0.01 | 50 | 1001.1 |
| 20260505183924 | 72 | 213 | 5.2 | 14.8 | 0.01 | 0.01 | 0.01 | 50 | 1001.1 |
| 20260505183734 | 72 | 226 | 9.6 | 14.8 | 0.00 | 0.00 | 0.00 | 51 | 1001.3 |
| 20260505183629 | 73 | 196 | 11.3 | 15.6 | 0.00 | 0.00 | 0.00 | 50 | 1001.4 |
| 20260505183551 | 73 | 223 | 11.3 | 15.6 | 0.00 | 0.00 | 0.00 | 50 | 1001.4 |
| 20260505183506 | 74 | 181 | 9.6 | 15.6 | 0.00 | 0.00 | 0.00 | 50 | 1001.6 |
| 20260505183427 | 74 | 188 | 8.7 | 14.8 | 0.00 | 0.00 | 0.00 | 49 | 1001.5 |
| 20260505183226 | 75 | 191 | 9.6 | 13.9 | 0.00 | 0.00 | 0.00 | 47 | 1001.3 |
| 20260505183148 | 75 | 196 | 8.7 | 13.9 | 0.00 | 0.00 | 0.00 | 47 | 1001.3 |
| 20260505183017 | 75 | 174 | 7.8 | 13.9 | 0.00 | 0.00 | 0.00 | 47 | 1001.1 |
| 20260505182931 | 76 | 162 | 7.0 | 13.9 | 0.00 | 0.00 | 0.00 | 48 | 1001.4 |
| 20260505182740 | 76 | 176 | 8.7 | 13.9 | 0.00 | 0.00 | 0.00 | 45 | 1001.0 |
| 20260505182654 | 76 | 148 | 7.8 | 13.9 | 0.00 | 0.00 | 0.00 | 45 | 1000.7 |
| 20260505182441 | 76 | 158 | 8.7 | 13.9 | 0.00 | 0.00 | 0.00 | 45 | 1000.7 |
| 20260505182406 | 76 | 211 | 9.6 | 13.9 | 0.00 | 0.00 | 0.00 | 45 | 1000.7 |
| 20260505182320 | 76 | 195 | 8.7 | 13.9 | 0.00 | 0.00 | 0.00 | 45 | 1000.6 |
| 20260505182131 | 76 | 194 | 6.1 | 13.0 | 0.00 | 0.00 | 0.00 | 45 | 1000.5 |
| 20260505182029 | 76 | 302 | 5.2 | 16.5 | 0.00 | 0.00 | 0.00 | 46 | 1000.5 |
| 20260505181953 | 76 | 207 | 6.1 | 16.5 | 0.00 | 0.00 | 0.00 | 46 | 1000.5 |
| 20260505181835 | 76 | 200 | 7.8 | 22.6 | 0.00 | 0.00 | 0.00 | 46 | 1000.6 |
| 20260505181759 | 76 | 163 | 8.7 | 22.6 | 0.00 | 0.00 | 0.00 | 45 | 1000.6 |
| 20260505181704 | 76 | 232 | 8.7 | 22.6 | 0.00 | 0.00 | 0.00 | 45 | 1000.6 |
| 20260505181627 | 76 | 178 | 7.8 | 22.6 | 0.00 | 0.00 | 0.00 | 45 | 1000.7 |
| 20260505181431 | 76 | 180 | 9.6 | 22.6 | 0.00 | 0.00 | 0.00 | 45 | 1000.8 |
| 20260505181334 | 76 | 186 | 12.2 | 22.6 | 0.00 | 0.00 | 0.00 | 45 | 1000.8 |
| 20260505181237 | 76 | 164 | 15.6 | 22.6 | 0.00 | 0.00 | 0.00 | 44 | 1000.8 |
| 20260505181203 | 76 | 171 | 14.8 | 22.6 | 0.00 | 0.00 | 0.00 | 44 | 1000.8 |
| 20260505181102 | 76 | 178 | 11.3 | 24.3 | 0.00 | 0.00 | 0.00 | 45 | 1000.7 |
| 20260505180934 | 76 | 219 | 7.8 | 17.4 | 0.00 | 0.00 | 0.00 | 45 | 1000.8 |
| 20260505180829 | 76 | 196 | 9.6 | 17.4 | 0.00 | 0.00 | 0.00 | 45 | 1000.7 |
| 20260505180614 | 76 | 226 | 9.6 | 20.9 | 0.00 | 0.00 | 0.00 | 44 | 1000.7 |
| 20260505180525 | 76 | 153 | 7.8 | 18.2 | 0.00 | 0.00 | 0.00 | 45 | 1000.7 |
| 20260505180428 | 76 | 175 | 8.7 | 20.9 | 0.00 | 0.00 | 0.00 | 45 | 1000.7 |
| 20260505180350 | 76 | 149 | 9.6 | 20.9 | 0.00 | 0.00 | 0.00 | 45 | 1000.7 |
| 20260505180310 | 76 | 203 | 10.4 | 20.9 | 0.00 | 0.00 | 0.00 | 44 | 1000.6 |
| 20260505180153 | 76 | 221 | 10.4 | 20.9 | 0.00 | 0.00 | 0.00 | 44 | 1000.6 |
| 20260505180119 | 76 | 224 | 11.3 | 20.9 | 0.00 | 0.00 | 0.00 | 45 | 1000.7 |
| 20260505175923 | 76 | 146 | 9.6 | 20.9 | 0.00 | 0.00 | 0.00 | 45 | 1000.8 |
| 20260505175824 | 76 | 132 | 12.2 | 20.9 | 0.00 | 0.00 | 0.00 | 44 | 1000.8 |
| 20260505175726 | 76 | 159 | 12.2 | 20.9 | 0.00 | 0.00 | 0.00 | 44 | 1000.7 |
| 20260505175648 | 76 | 177 | 12.2 | 20.9 | 0.00 | 0.00 | 0.00 | 44 | 1000.7 |
| 20260505175517 | 76 | 182 | 10.4 | 19.1 | 0.00 | 0.00 | 0.00 | 44 | 1000.7 |
| 20260505175431 | 76 | 128 | 9.6 | 21.7 | 0.00 | 0.00 | 0.00 | 44 | 1000.9 |
| 20260505175240 | 76 | 115 | 11.3 | 21.7 | 0.00 | 0.00 | 0.00 | 44 | 1001.0 |
| 20260505175134 | 76 | 178 | 12.2 | 21.7 | 0.00 | 0.00 | 0.00 | 44 | 1000.9 |
| 20260505175021 | 76 | 220 | 10.4 | 21.7 | 0.00 | 0.00 | 0.00 | 44 | 1000.9 |
| 20260505174945 | 76 | 160 | 10.4 | 21.7 | 0.00 | 0.00 | 0.00 | 44 | 1000.9 |
| 20260505174906 | 76 | 169 | 8.7 | 21.7 | 0.00 | 0.00 | 0.00 | 45 | 1000.8 |
| 20260505174716 | 76 | 161 | 9.6 | 21.7 | 0.00 | 0.00 | 0.00 | 44 | 1001.0 |
| 20260505174630 | 76 | 130 | 11.3 | 21.7 | 0.00 | 0.00 | 0.00 | 44 | 1001.1 |
| 20260505174440 | 76 | 192 | 13.0 | 25.2 | 0.00 | 0.00 | 0.00 | 43 | 1001.1 |
| 20260505174335 | 76 | 173 | 12.2 | 26.9 | 0.00 | 0.00 | 0.00 | 44 | 1001.2 |
| 20260505174258 | 76 | 170 | 10.4 | 26.9 | 0.00 | 0.00 | 0.00 | 44 | 1001.2 |
| 20260505174143 | 76 | 194 | 12.2 | 26.9 | 0.00 | 0.00 | 0.00 | 43 | 1001.0 |
| 20260505174110 | 76 | 164 | 12.2 | 26.9 | 0.00 | 0.00 | 0.00 | 43 | 1000.9 |
| 20260505174036 | 76 | 192 | 12.2 | 26.9 | 0.00 | 0.00 | 0.00 | 43 | 1000.9 |
| 20260505173918 | 76 | 155 | 12.2 | 26.9 | 0.00 | 0.00 | 0.00 | 44 | 1001.0 |
| 20260505173819 | 76 | 155 | 13.9 | 26.9 | 0.00 | 0.00 | 0.00 | 44 | 1001.1 |
| 20260505173621 | 76 | 188 | 14.8 | 26.9 | 0.00 | 0.00 | 0.00 | 43 | 1001.2 |
| 20260505173545 | 76 | 184 | 13.0 | 28.7 | 0.00 | 0.00 | 0.00 | 44 | 1001.2 |
| 20260505173429 | 76 | 155 | 11.3 | 20.9 | 0.00 | 0.00 | 0.00 | 44 | 1001.2 |
| 20260505173352 | 77 | 221 | 11.3 | 23.5 | 0.00 | 0.00 | 0.00 | 44 | 1001.2 |
| 20260505173133 | 77 | 171 | 12.2 | 23.5 | 0.00 | 0.00 | 0.00 | 43 | 1001.2 |
| 20260505173038 | 77 | 189 | 12.2 | 23.5 | 0.00 | 0.00 | 0.00 | 43 | 1001.2 |
| 20260505172940 | 77 | 169 | 13.0 | 23.5 | 0.00 | 0.00 | 0.00 | 44 | 1001.1 |
| 20260505172904 | 77 | 136 | 13.9 | 23.5 | 0.00 | 0.00 | 0.00 | 45 | 1001.1 |
| 20260505172824 | 77 | 139 | 13.9 | 23.5 | 0.00 | 0.00 | 0.00 | 44 | 1001.1 |
| 20260505172627 | 77 | 144 | 13.0 | 23.5 | 0.00 | 0.00 | 0.00 | 44 | 1001.1 |
| 20260505172549 | 77 | 237 | 12.2 | 24.3 | 0.00 | 0.00 | 0.00 | 44 | 1001.1 |
| 20260505172432 | 77 | 119 | 13.0 | 20.9 | 0.00 | 0.00 | 0.00 | 44 | 1001.3 |
| 20260505172356 | 77 | 189 | 13.0 | 23.5 | 0.00 | 0.00 | 0.00 | 43 | 1001.3 |
| 20260505172310 | 77 | 180 | 11.3 | 23.5 | 0.00 | 0.00 | 0.00 | 44 | 1001.2 |
| 20260505172131 | 77 | 199 | 11.3 | 23.5 | 0.00 | 0.00 | 0.00 | 44 | 1001.1 |
| 20260505172049 | 76 | 163 | 12.2 | 23.5 | 0.00 | 0.00 | 0.00 | 44 | 1001.1 |
| 20260505171857 | 76 | 168 | 11.3 | 26.1 | 0.00 | 0.00 | 0.00 | 44 | 1001.2 |
| 20260505171759 | 76 | 165 | 13.0 | 27.8 | 0.00 | 0.00 | 0.00 | 44 | 1001.2 |
| 20260505171625 | 76 | 138 | 14.8 | 27.8 | 0.00 | 0.00 | 0.00 | 43 | 1001.3 |
| 20260505171528 | 76 | 163 | 13.0 | 27.8 | 0.00 | 0.00 | 0.00 | 44 | 1001.3 |
| 20260505171429 | 76 | 191 | 12.2 | 27.8 | 0.00 | 0.00 | 0.00 | 44 | 1001.4 |
| 20260505171353 | 76 | 157 | 9.6 | 27.8 | 0.00 | 0.00 | 0.00 | 44 | 1001.4 |
| 20260505171237 | 76 | 218 | 10.4 | 27.8 | 0.00 | 0.00 | 0.00 | 46 | 1001.3 |
| 20260505171159 | 76 | 196 | 13.9 | 27.8 | 0.00 | 0.00 | 0.00 | 45 | 1001.2 |
| 20260505171026 | 76 | 150 | 14.8 | 27.8 | 0.00 | 0.00 | 0.00 | 45 | 1001.3 |
| 20260505170950 | 76 | 160 | 12.2 | 27.8 | 0.00 | 0.00 | 0.00 | 45 | 1001.3 |
| 20260505170904 | 76 | 177 | 7.8 | 18.2 | 0.00 | 0.00 | 0.00 | 45 | 1001.2 |
| 20260505170711 | 76 | 115 | 8.7 | 18.2 | 0.00 | 0.00 | 0.00 | 45 | 1001.2 |
| 20260505170634 | 76 | 186 | 9.6 | 18.2 | 0.00 | 0.00 | 0.00 | 45 | 1001.2 |
| 20260505170436 | 76 | 153 | 9.6 | 21.7 | 0.00 | 0.00 | 0.00 | 45 | 1001.4 |
| 20260505170400 | 76 | 174 | 9.6 | 21.7 | 0.00 | 0.00 | 0.00 | 45 | 1001.4 |
| 20260505170224 | 76 | 148 | 9.6 | 21.7 | 0.00 | 0.00 | 0.00 | 45 | 1001.3 |
| 20260505170122 | 76 | 151 | 11.3 | 21.7 | 0.00 | 0.00 | 0.00 | 45 | 1001.4 |
| 20260505170054 | 76 | 188 | 10.4 | 21.7 | 0.00 | 0.00 | 0.00 | 45 | 1001.4 |
| 20260505165956 | 76 | 199 | 8.7 | 21.7 | 0.00 | 0.00 | 0.00 | 45 | 1001.5 |
| 20260505165859 | 76 | 181 | 10.4 | 21.7 | 0.00 | 0.00 | 0.00 | 45 | 1001.5 |
| 20260505165820 | 76 | 194 | 11.3 | 21.7 | 0.00 | 0.00 | 0.00 | 45 | 1001.6 |
| 20260505165624 | 76 | 189 | 12.2 | 20.9 | 0.00 | 0.00 | 0.00 | 45 | 1001.8 |
| 20260505165525 | 75 | 136 | 11.3 | 20.0 | 0.00 | 0.00 | 0.00 | 45 | 1001.8 |
| 20260505165427 | 75 | 152 | 7.8 | 18.2 | 0.00 | 0.00 | 0.00 | 47 | 1001.7 |
| 20260505165351 | 75 | 151 | 7.0 | 17.4 | 0.00 | 0.00 | 0.00 | 47 | 1001.7 |
| 20260505165314 | 75 | 174 | 6.1 | 16.5 | 0.00 | 0.00 | 0.00 | 47 | 1001.7 |
| 20260505165220 | 75 | 122 | 6.1 | 20.9 | 0.00 | 0.00 | 0.00 | 48 | 1001.7 |
| 20260505165144 | 75 | 158 | 7.0 | 20.9 | 0.00 | 0.00 | 0.00 | 47 | 1001.7 |
| 20260505165016 | 74 | 131 | 9.6 | 19.1 | 0.00 | 0.00 | 0.00 | 47 | 1001.9 |
| 20260505164930 | 74 | 190 | 9.6 | 19.1 | 0.00 | 0.00 | 0.00 | 47 | 1001.8 |
| 20260505164740 | 74 | 146 | 9.6 | 19.1 | 0.00 | 0.00 | 0.00 | 47 | 1002.0 |
| 20260505164704 | 74 | 194 | 9.6 | 19.1 | 0.00 | 0.00 | 0.00 | 47 | 1002.0 |
| 20260505164618 | 74 | 146 | 10.4 | 19.1 | 0.00 | 0.00 | 0.00 | 47 | 1001.9 |
| 20260505164428 | 74 | 140 | 13.0 | 19.1 | 0.00 | 0.00 | 0.00 | 47 | 1001.9 |
| 20260505164343 | 74 | 161 | 14.8 | 23.5 | 0.00 | 0.00 | 0.00 | 46 | 1001.9 |
| 20260505164307 | 74 | 175 | 10.4 | 20.0 | 0.00 | 0.00 | 0.00 | 47 | 1002.0 |
| 20260505164207 | 74 | 178 | 7.8 | 18.2 | 0.00 | 0.00 | 0.00 | 47 | 1002.3 |
| 20260505164121 | 74 | 148 | 7.8 | 15.6 | 0.00 | 0.00 | 0.00 | 46 | 1002.0 |
| 20260505163934 | 74 | 177 | 10.4 | 15.6 | 0.00 | 0.00 | 0.00 | 47 | 1002.2 |
| 20260505163850 | 74 | 192 | 10.4 | 15.6 | 0.00 | 0.00 | 0.00 | 47 | 1002.2 |
| 20260505163813 | 74 | 196 | 10.4 | 15.6 | 0.00 | 0.00 | 0.00 | 47 | 1002.3 |
| 20260505163733 | 74 | 128 | 10.4 | 16.5 | 0.00 | 0.00 | 0.00 | 47 | 1002.1 |
| 20260505163626 | 74 | 138 | 9.6 | 16.5 | 0.00 | 0.00 | 0.00 | 48 | 1002.2 |
| 20260505163456 | 74 | 160 | 9.6 | 17.4 | 0.00 | 0.00 | 0.00 | 47 | 1002.3 |
| 20260505163338 | 73 | 148 | 9.6 | 20.0 | 0.00 | 0.00 | 0.00 | 48 | 1002.5 |
| 20260505163241 | 73 | 139 | 9.6 | 20.0 | 0.00 | 0.00 | 0.00 | 48 | 1002.5 |
| 20260505163144 | 73 | 234 | 8.7 | 20.0 | 0.00 | 0.00 | 0.00 | 48 | 1002.5 |
| 20260505163041 | 73 | 174 | 8.7 | 20.0 | 0.00 | 0.00 | 0.00 | 48 | 1002.4 |
| 20260505162923 | 73 | 133 | 8.7 | 20.0 | 0.00 | 0.00 | 0.00 | 48 | 1002.4 |
| 20260505162845 | 73 | 166 | 10.4 | 20.0 | 0.00 | 0.00 | 0.00 | 47 | 1002.4 |
| 20260505162654 | 73 | 125 | 13.0 | 19.1 | 0.00 | 0.00 | 0.00 | 47 | 1002.5 |
| 20260505162609 | 73 | 179 | 13.0 | 19.1 | 0.00 | 0.00 | 0.00 | 48 | 1002.6 |
| 20260505162419 | 73 | 138 | 10.4 | 19.1 | 0.00 | 0.00 | 0.00 | 48 | 1002.6 |
| 20260505162319 | 73 | 170 | 10.4 | 19.1 | 0.00 | 0.00 | 0.00 | 48 | 1002.5 |
| 20260505162124 | 73 | 187 | 10.4 | 24.3 | 0.00 | 0.00 | 0.00 | 48 | 1002.6 |
| 20260505162038 | 73 | 148 | 11.3 | 24.3 | 0.00 | 0.00 | 0.00 | 47 | 1002.6 |
| 20260505161908 | 73 | 140 | 10.4 | 24.3 | 0.00 | 0.00 | 0.00 | 48 | 1002.6 |
| 20260505161834 | 73 | 186 | 11.3 | 24.3 | 0.00 | 0.00 | 0.00 | 48 | 1002.5 |
| 20260505161704 | 73 | 175 | 11.3 | 24.3 | 0.00 | 0.00 | 0.00 | 48 | 1002.6 |
| 20260505161618 | 73 | 144 | 8.7 | 24.3 | 0.00 | 0.00 | 0.00 | 48 | 1002.6 |
| 20260505161447 | 72 | 172 | 11.3 | 24.3 | 0.00 | 0.00 | 0.00 | 48 | 1002.7 |
| 20260505161350 | 72 | 146 | 11.3 | 24.3 | 0.00 | 0.00 | 0.00 | 48 | 1002.7 |
| 20260505161306 | 72 | 188 | 11.3 | 25.2 | 0.00 | 0.00 | 0.00 | 49 | 1002.8 |
| 20260505161024 | 72 | 169 | 12.2 | 21.7 | 0.00 | 0.00 | 0.00 | 48 | 1003.1 |
| 20260505160939 | 72 | 146 | 12.2 | 21.7 | 0.00 | 0.00 | 0.00 | 48 | 1002.8 |
| 20260505160757 | 72 | 169 | 12.2 | 21.7 | 0.00 | 0.00 | 0.00 | 48 | 1003.0 |
| 20260505160608 | 72 | 159 | 12.2 | 21.7 | 0.00 | 0.00 | 0.00 | 48 | 1003.0 |
| 20260505160426 | 72 | 185 | 12.2 | 22.6 | 0.00 | 0.00 | 0.00 | 48 | 1003.0 |
| 20260505160341 | 72 | 141 | 10.4 | 20.0 | 0.00 | 0.00 | 0.00 | 48 | 1003.0 |
| 20260505160241 | 72 | 145 | 9.6 | 20.0 | 0.00 | 0.00 | 0.00 | 48 | 1003.0 |
| 20260505160125 | 72 | 144 | 11.3 | 20.0 | 0.00 | 0.00 | 0.00 | 48 | 1003.0 |
| 20260505153344 | 71 | 174 | 7.8 | 19.1 | 0.00 | 0.00 | 0.00 | 49 | 1003.6 |
| 20260505153304 | 71 | 207 | 7.8 | 19.1 | 0.00 | 0.00 | 0.00 | 49 | 1003.7 |
| 20260505153206 | 71 | 186 | 9.6 | 19.1 | 0.00 | 0.00 | 0.00 | 49 | 1003.6 |
| 20260505153128 | 71 | 126 | 10.4 | 19.1 | 0.00 | 0.00 | 0.00 | 48 | 1003.6 |
| 20260505152931 | 71 | 170 | 13.9 | 18.2 | 0.00 | 0.00 | 0.00 | 48 | 1003.6 |
| 20260505152833 | 71 | 167 | 12.2 | 18.2 | 0.00 | 0.00 | 0.00 | 48 | 1003.5 |
| 20260505152737 | 71 | 175 | 11.3 | 18.2 | 0.00 | 0.00 | 0.00 | 48 | 1003.6 |
| 20260505152701 | 71 | 136 | 12.2 | 18.2 | 0.00 | 0.00 | 0.00 | 48 | 1003.6 |
| 20260505152624 | 71 | 164 | 11.3 | 18.2 | 0.00 | 0.00 | 0.00 | 49 | 1003.8 |
| 20260505152426 | 71 | 175 | 9.6 | 19.1 | 0.00 | 0.00 | 0.00 | 49 | 1003.6 |
| 20260505152350 | 71 | 190 | 11.3 | 19.1 | 0.00 | 0.00 | 0.00 | 48 | 1003.6 |
| 20260505152235 | 71 | 169 | 12.2 | 20.0 | 0.00 | 0.00 | 0.00 | 48 | 1003.5 |
| 20260505152157 | 71 | 144 | 12.2 | 19.1 | 0.00 | 0.00 | 0.00 | 48 | 1003.4 |
| 20260505152041 | 71 | 180 | 11.3 | 19.1 | 0.00 | 0.00 | 0.00 | 48 | 1003.6 |
| 20260505151919 | 71 | 178 | 11.3 | 19.1 | 0.00 | 0.00 | 0.00 | 48 | 1003.7 |
| 20260505151730 | 71 | 198 | 9.6 | 24.3 | 0.00 | 0.00 | 0.00 | 49 | 1003.6 |
| 20260505151627 | 70 | 236 | 9.6 | 24.3 | 0.00 | 0.00 | 0.00 | 49 | 1003.6 |
| 20260505151548 | 70 | 126 | 9.6 | 24.3 | 0.00 | 0.00 | 0.00 | 49 | 1003.6 |
| 20260505151443 | 70 | 123 | 9.6 | 24.3 | 0.00 | 0.00 | 0.00 | 49 | 1003.6 |
| 20260505151415 | 70 | 173 | 9.6 | 24.3 | 0.00 | 0.00 | 0.00 | 49 | 1003.6 |
| 20260505151238 | 70 | 190 | 12.2 | 24.3 | 0.00 | 0.00 | 0.00 | 49 | 1003.7 |
| 20260505151200 | 70 | 192 | 13.0 | 24.3 | 0.00 | 0.00 | 0.00 | 49 | 1003.7 |
| 20260505150951 | 70 | 160 | 8.7 | 22.6 | 0.00 | 0.00 | 0.00 | 49 | 1003.6 |
| 20260505150846 | 70 | 180 | 10.4 | 22.6 | 0.00 | 0.00 | 0.00 | 49 | 1003.6 |
| 20260505150716 | 70 | 202 | 10.4 | 22.6 | 0.00 | 0.00 | 0.00 | 49 | 1003.7 |
| 20260505150638 | 70 | 183 | 10.4 | 22.6 | 0.00 | 0.00 | 0.00 | 49 | 1003.7 |
| 20260505150516 | 69 | 155 | 11.3 | 22.6 | 0.00 | 0.00 | 0.00 | 48 | 1003.9 |
| 20260505150430 | 69 | 159 | 12.2 | 22.6 | 0.00 | 0.00 | 0.00 | 49 | 1003.9 |
| 20260505150314 | 69 | 166 | 13.0 | 22.6 | 0.00 | 0.00 | 0.00 | 49 | 1003.9 |
| 20260505150237 | 69 | 147 | 13.0 | 22.6 | 0.00 | 0.00 | 0.00 | 49 | 1003.9 |
| 20260505140623 | 65 | 139 | 7.0 | 18.2 | 0.00 | 0.00 | 0.00 | 49 | 1004.7 |
| 20260505140504 | 65 | 144 | 5.2 | 18.2 | 0.00 | 0.00 | 0.00 | 49 | 1004.6 |
| 20260505140426 | 65 | 140 | 5.2 | 18.2 | 0.00 | 0.00 | 0.00 | 49 | 1004.7 |
| 20260505140203 | 65 | 185 | 6.1 | 18.2 | 0.00 | 0.00 | 0.00 | 49 | 1004.7 |
| 20260505140116 | 65 | 172 | 6.1 | 18.2 | 0.00 | 0.00 | 0.00 | 49 | 1004.7 |
| 20260505130218 | 64 | 179 | 9.6 | 17.4 | 0.00 | 0.00 | 0.00 | 50 | 1004.6 |
| 20260505130140 | 64 | 159 | 7.8 | 15.6 | 0.00 | 0.00 | 0.00 | 50 | 1004.6 |
| 20260505125021 | 64 | 125 | 7.0 | 13.0 | 0.00 | 0.00 | 0.00 | 50 | 1005.0 |
| 20260505124945 | 63 | 172 | 7.0 | 13.0 | 0.00 | 0.00 | 0.00 | 50 | 1005.0 |
| 20260505124839 | 63 | 142 | 6.1 | 13.0 | 0.00 | 0.00 | 0.00 | 50 | 1004.9 |
| 20260505124724 | 63 | 162 | 7.0 | 13.0 | 0.00 | 0.00 | 0.00 | 50 | 1005.0 |
| 20260505124627 | 63 | 183 | 7.0 | 13.0 | 0.00 | 0.00 | 0.00 | 50 | 1004.9 |
| 20260505124541 | 63 | 192 | 7.0 | 13.0 | 0.00 | 0.00 | 0.00 | 50 | 1005.0 |
| 20260505124427 | 63 | 171 | 7.0 | 17.4 | 0.00 | 0.00 | 0.00 | 50 | 1004.9 |
| 20260505124341 | 63 | 188 | 7.0 | 17.4 | 0.00 | 0.00 | 0.00 | 50 | 1005.0 |
| 20260505124131 | 63 | 214 | 7.8 | 17.4 | 0.00 | 0.00 | 0.00 | 50 | 1005.0 |
| 20260505124026 | 63 | 233 | 7.8 | 17.4 | 0.00 | 0.00 | 0.00 | 50 | 1005.0 |
| 20260505123949 | 63 | 171 | 8.7 | 17.4 | 0.00 | 0.00 | 0.00 | 50 | 1005.0 |
| 20260505123853 | 63 | 227 | 8.7 | 17.4 | 0.00 | 0.00 | 0.00 | 50 | 1005.1 |
| 20260505123816 | 63 | 196 | 7.8 | 17.4 | 0.00 | 0.00 | 0.00 | 50 | 1005.0 |
| 20260505123644 | 62 | 169 | 7.8 | 14.8 | 0.00 | 0.00 | 0.00 | 50 | 1005.0 |
| 20260505123538 | 62 | 188 | 7.0 | 14.8 | 0.00 | 0.00 | 0.00 | 50 | 1004.9 |
| 20260505123408 | 62 | 158 | 6.1 | 14.8 | 0.00 | 0.00 | 0.00 | 50 | 1004.9 |
| 20260505123330 | 62 | 149 | 6.1 | 14.8 | 0.00 | 0.00 | 0.00 | 50 | 1004.9 |
| 20260505123137 | 62 | 123 | 7.0 | 14.8 | 0.00 | 0.00 | 0.00 | 51 | 1004.9 |
| 20260505123059 | 61 | 187 | 7.8 | 15.6 | 0.00 | 0.00 | 0.00 | 51 | 1004.9 |
| 20260505122943 | 61 | 131 | 7.0 | 15.6 | 0.00 | 0.00 | 0.00 | 51 | 1004.9 |
| 20260505122904 | 61 | 169 | 6.1 | 15.6 | 0.00 | 0.00 | 0.00 | 51 | 1005.0 |
| 20260505122714 | 61 | 209 | 7.0 | 15.6 | 0.00 | 0.00 | 0.00 | 51 | 1005.0 |
| 20260505122629 | 61 | 179 | 7.8 | 15.6 | 0.00 | 0.00 | 0.00 | 51 | 1005.0 |
| 20260505122438 | 61 | 130 | 10.4 | 15.6 | 0.00 | 0.00 | 0.00 | 51 | 1005.1 |
| 20260505122314 | 61 | 207 | 12.2 | 17.4 | 0.00 | 0.00 | 0.00 | 51 | 1005.1 |
| 20260505122232 | 61 | 216 | 10.4 | 17.4 | 0.00 | 0.00 | 0.00 | 51 | 1005.1 |
| 20260505122155 | 61 | 165 | 7.8 | 17.4 | 0.00 | 0.00 | 0.00 | 51 | 1005.1 |
| 20260505122116 | 61 | 173 | 6.1 | 17.4 | 0.00 | 0.00 | 0.00 | 51 | 1005.1 |
| 20260505121941 | 61 | 174 | 7.0 | 17.4 | 0.00 | 0.00 | 0.00 | 51 | 1005.1 |
| 20260505121902 | 61 | 158 | 7.0 | 17.4 | 0.00 | 0.00 | 0.00 | 51 | 1005.1 |
| 20260505121743 | 61 | 183 | 7.8 | 17.4 | 0.00 | 0.00 | 0.00 | 51 | 1005.1 |
| 20260505121637 | 61 | 161 | 9.6 | 17.4 | 0.00 | 0.00 | 0.00 | 51 | 1005.0 |
| 20260505121507 | 61 | 182 | 12.2 | 18.2 | 0.00 | 0.00 | 0.00 | 51 | 1005.1 |
| 20260505121430 | 61 | 150 | 11.3 | 18.2 | 0.00 | 0.00 | 0.00 | 51 | 1005.1 |
| 20260505121234 | 61 | 195 | 9.6 | 19.1 | 0.00 | 0.00 | 0.00 | 51 | 1005.2 |
| 20260505121137 | 61 | 148 | 7.0 | 19.1 | 0.00 | 0.00 | 0.00 | 51 | 1005.1 |
| 20260505121024 | 61 | 159 | 7.8 | 19.1 | 0.00 | 0.00 | 0.00 | 51 | 1005.1 |
| 20260505120948 | 61 | 201 | 9.6 | 19.1 | 0.00 | 0.00 | 0.00 | 51 | 1005.1 |
| 20260505120825 | 61 | 155 | 10.4 | 20.0 | 0.00 | 0.00 | 0.00 | 51 | 1005.0 |
| 20260505120728 | 61 | 166 | 8.7 | 19.1 | 0.00 | 0.00 | 0.00 | 51 | 1004.9 |
| 20260505120651 | 61 | 151 | 9.6 | 19.1 | 0.00 | 0.00 | 0.00 | 51 | 1004.9 |
| 20260505120613 | 61 | 207 | 10.4 | 19.1 | 0.00 | 0.00 | 0.00 | 51 | 1004.9 |
| 20260505120518 | 61 | 165 | 10.4 | 20.0 | 0.00 | 0.00 | 0.00 | 51 | 1004.9 |
| 20260505120438 | 61 | 158 | 9.6 | 20.0 | 0.00 | 0.00 | 0.00 | 51 | 1004.8 |
| 20260505120310 | 61 | 146 | 10.4 | 15.6 | 0.00 | 0.00 | 0.00 | 51 | 1004.9 |
| 20260505120224 | 61 | 150 | 11.3 | 18.2 | 0.00 | 0.00 | 0.00 | 51 | 1004.9 |
| 20260505120037 | 61 | 161 | 10.4 | 21.7 | 0.00 | 0.00 | 0.00 | 51 | 1004.9 |
| 20260505120001 | 61 | 174 | 10.4 | 21.7 | 0.00 | 0.00 | 0.00 | 51 | 1004.9 |
| 20260505115914 | 61 | 198 | 11.3 | 21.7 | 0.00 | 0.00 | 0.00 | 51 | 1004.9 |
| 20260505115634 | 61 | 163 | 9.6 | 21.7 | 0.00 | 0.00 | 0.00 | 51 | 1004.8 |
| 20260505115549 | 61 | 192 | 11.3 | 21.7 | 0.00 | 0.00 | 0.00 | 51 | 1004.8 |
| 20260505115419 | 61 | 215 | 13.0 | 21.7 | 0.00 | 0.00 | 0.00 | 50 | 1005.0 |
| 20260505115320 | 61 | 167 | 12.2 | 21.7 | 0.00 | 0.00 | 0.00 | 50 | 1004.9 |
| 20260505115122 | 61 | 188 | 7.8 | 14.8 | 0.00 | 0.00 | 0.00 | 51 | 1004.8 |
| 20260505115047 | 61 | 178 | 7.8 | 16.5 | 0.00 | 0.00 | 0.00 | 51 | 1004.8 |
| 20260505114936 | 61 | 189 | 8.7 | 16.5 | 0.00 | 0.00 | 0.00 | 51 | 1004.9 |
| 20260505114857 | 61 | 222 | 7.8 | 16.5 | 0.00 | 0.00 | 0.00 | 51 | 1004.9 |
| 20260505114728 | 61 | 157 | 7.8 | 16.5 | 0.00 | 0.00 | 0.00 | 51 | 1004.8 |
| 20260505114621 | 61 | 170 | 8.7 | 16.5 | 0.00 | 0.00 | 0.00 | 50 | 1004.8 |
| 20260505114432 | 61 | 205 | 7.8 | 16.5 | 0.00 | 0.00 | 0.00 | 50 | 1004.9 |
| 20260505114327 | 61 | 221 | 9.6 | 16.5 | 0.00 | 0.00 | 0.00 | 50 | 1004.8 |
| 20260505114249 | 61 | 181 | 9.6 | 16.5 | 0.00 | 0.00 | 0.00 | 50 | 1004.8 |
| 20260505114133 | 61 | 152 | 7.8 | 13.9 | 0.00 | 0.00 | 0.00 | 50 | 1004.9 |
| 20260505114054 | 61 | 176 | 7.8 | 13.9 | 0.00 | 0.00 | 0.00 | 50 | 1005.0 |
| 20260505113935 | 61 | 184 | 6.1 | 13.9 | 0.00 | 0.00 | 0.00 | 51 | 1005.0 |
| 20260505113842 | 61 | 231 | 4.3 | 13.9 | 0.00 | 0.00 | 0.00 | 50 | 1005.0 |
| 20260505113737 | 61 | 106 | 5.2 | 13.9 | 0.00 | 0.00 | 0.00 | 51 | 1004.9 |
| 20260505113710 | 61 | 191 | 6.1 | 13.9 | 0.00 | 0.00 | 0.00 | 50 | 1004.9 |
| 20260505113626 | 61 | 181 | 7.0 | 15.6 | 0.00 | 0.00 | 0.00 | 50 | 1004.7 |
| 20260505113527 | 61 | 198 | 7.8 | 15.6 | 0.00 | 0.00 | 0.00 | 50 | 1004.7 |
| 20260505113330 | 61 | 123 | 7.8 | 15.6 | 0.00 | 0.00 | 0.00 | 50 | 1004.7 |
| 20260505113232 | 61 | 151 | 7.8 | 15.6 | 0.00 | 0.00 | 0.00 | 50 | 1004.7 |
| 20260505113136 | 61 | 180 | 7.8 | 15.6 | 0.00 | 0.00 | 0.00 | 50 | 1004.6 |
| 20260505113058 | 61 | 204 | 7.0 | 15.6 | 0.00 | 0.00 | 0.00 | 50 | 1004.6 |
| 20260505113023 | 61 | 185 | 7.8 | 15.6 | 0.00 | 0.00 | 0.00 | 50 | 1004.6 |
| 20260505112827 | 61 | 183 | 8.7 | 14.8 | 0.00 | 0.00 | 0.00 | 50 | 1004.7 |
| 20260505112749 | 61 | 182 | 8.7 | 16.5 | 0.00 | 0.00 | 0.00 | 50 | 1004.7 |
| 20260505112631 | 61 | 145 | 7.8 | 16.5 | 0.00 | 0.00 | 0.00 | 50 | 1004.7 |
| 20260505112555 | 61 | 187 | 8.7 | 16.5 | 0.00 | 0.00 | 0.00 | 50 | 1004.7 |
| 20260505112516 | 61 | 145 | 9.6 | 16.5 | 0.00 | 0.00 | 0.00 | 50 | 1004.8 |
| 20260505112421 | 61 | 229 | 9.6 | 16.5 | 0.00 | 0.00 | 0.00 | 50 | 1004.8 |
| 20260505112322 | 61 | 151 | 9.6 | 16.5 | 0.00 | 0.00 | 0.00 | 50 | 1004.8 |
| 20260505112124 | 61 | 147 | 8.7 | 16.5 | 0.00 | 0.00 | 0.00 | 50 | 1004.9 |
| 20260505112030 | 60 | 188 | 9.6 | 16.5 | 0.00 | 0.00 | 0.00 | 50 | 1004.9 |
| 20260505111932 | 60 | 208 | 9.6 | 16.5 | 0.00 | 0.00 | 0.00 | 50 | 1004.9 |
| 20260505111855 | 60 | 149 | 7.8 | 17.4 | 0.00 | 0.00 | 0.00 | 50 | 1004.9 |
| 20260505111817 | 60 | 151 | 6.1 | 17.4 | 0.00 | 0.00 | 0.00 | 50 | 1005.0 |
| 20260505111639 | 60 | 200 | 7.8 | 16.5 | 0.00 | 0.00 | 0.00 | 50 | 1004.9 |
| 20260505111542 | 60 | 155 | 8.7 | 16.5 | 0.00 | 0.00 | 0.00 | 50 | 1004.9 |
| 20260505111426 | 60 | 165 | 8.7 | 16.5 | 0.00 | 0.00 | 0.00 | 50 | 1004.9 |
| 20260505111347 | 60 | 174 | 9.6 | 16.5 | 0.00 | 0.00 | 0.00 | 50 | 1004.9 |
| 20260505111218 | 60 | 161 | 7.8 | 18.2 | 0.00 | 0.00 | 0.00 | 50 | 1004.9 |
| 20260505111131 | 60 | 159 | 6.1 | 16.5 | 0.00 | 0.00 | 0.00 | 50 | 1005.0 |
| 20260505110947 | 60 | 166 | 7.8 | 16.5 | 0.00 | 0.00 | 0.00 | 50 | 1004.9 |
| 20260505110839 | 60 | 226 | 7.8 | 16.5 | 0.00 | 0.00 | 0.00 | 50 | 1004.9 |
| 20260505110742 | 60 | 148 | 7.8 | 15.6 | 0.00 | 0.00 | 0.00 | 50 | 1004.9 |
| 20260505110657 | 60 | 158 | 8.7 | 15.6 | 0.00 | 0.00 | 0.00 | 50 | 1004.9 |
| 20260505110538 | 60 | 191 | 8.7 | 15.6 | 0.00 | 0.00 | 0.00 | 50 | 1004.8 |
| 20260505110443 | 60 | 217 | 8.7 | 13.9 | 0.00 | 0.00 | 0.00 | 50 | 1004.8 |
| 20260505110404 | 60 | 150 | 7.8 | 15.6 | 0.00 | 0.00 | 0.00 | 50 | 1004.8 |
| 20260505110203 | 59 | 205 | 6.1 | 15.6 | 0.00 | 0.00 | 0.00 | 50 | 1004.8 |
| 20260505102038 | 58 | 179 | 5.2 | 9.6 | 0.00 | 0.00 | 0.00 | 50 | 1004.5 |
| 20260505101959 | 58 | 173 | 4.3 | 13.0 | 0.00 | 0.00 | 0.00 | 51 | 1004.5 |
| 20260505101905 | 58 | 155 | 4.3 | 13.0 | 0.00 | 0.00 | 0.00 | 51 | 1004.5 |
| 20260505101825 | 58 | 153 | 4.3 | 13.0 | 0.00 | 0.00 | 0.00 | 51 | 1004.5 |
| 20260505101628 | 58 | 191 | 6.1 | 13.0 | 0.00 | 0.00 | 0.00 | 51 | 1004.4 |
| 20260505101535 | 59 | 119 | 7.8 | 13.0 | 0.00 | 0.00 | 0.00 | 51 | 1004.5 |
| 20260505101438 | 59 | 159 | 6.1 | 13.0 | 0.00 | 0.00 | 0.00 | 51 | 1004.5 |
| 20260505101402 | 59 | 171 | 6.1 | 13.0 | 0.00 | 0.00 | 0.00 | 51 | 1004.5 |
| 20260505101324 | 59 | 143 | 5.2 | 13.0 | 0.00 | 0.00 | 0.00 | 51 | 1004.5 |
| 20260505101155 | 59 | 188 | 5.2 | 13.9 | 0.00 | 0.00 | 0.00 | 51 | 1004.5 |
| 20260505101049 | 59 | 152 | 4.3 | 9.6 | 0.00 | 0.00 | 0.00 | 52 | 1004.5 |
| 20260505100921 | 59 | 185 | 6.1 | 9.6 | 0.00 | 0.00 | 0.00 | 52 | 1004.6 |
| 20260505100843 | 59 | 167 | 6.1 | 9.6 | 0.00 | 0.00 | 0.00 | 51 | 1004.6 |
| 20260505100625 | 59 | 148 | 6.1 | 13.0 | 0.00 | 0.00 | 0.00 | 52 | 1004.6 |
| 20260505100549 | 59 | 171 | 6.1 | 13.0 | 0.00 | 0.00 | 0.00 | 52 | 1004.6 |
| 20260505100437 | 59 | 145 | 5.2 | 13.0 | 0.00 | 0.00 | 0.00 | 52 | 1004.6 |
| 20260505100400 | 59 | 206 | 5.2 | 13.0 | 0.00 | 0.00 | 0.00 | 52 | 1004.6 |
| 20260505100317 | 59 | 188 | 6.1 | 13.9 | 0.00 | 0.00 | 0.00 | 52 | 1004.6 |
| 20260505100145 | 59 | 178 | 6.1 | 13.9 | 0.00 | 0.00 | 0.00 | 52 | 1004.6 |
| 20260505100046 | 59 | 178 | 7.0 | 13.9 | 0.00 | 0.00 | 0.00 | 52 | 1004.6 |
| 20260505095923 | 59 | 154 | 7.8 | 16.5 | 0.00 | 0.00 | 0.00 | 52 | 1004.5 |
| 20260505095826 | 59 | 160 | 7.8 | 16.5 | 0.00 | 0.00 | 0.00 | 52 | 1004.5 |
| 20260505095750 | 59 | 185 | 7.0 | 16.5 | 0.00 | 0.00 | 0.00 | 52 | 1004.5 |
| 20260505095712 | 59 | 149 | 7.0 | 16.5 | 0.00 | 0.00 | 0.00 | 52 | 1004.5 |
| 20260505095634 | 59 | 160 | 7.0 | 16.5 | 0.00 | 0.00 | 0.00 | 52 | 1004.5 |
| 20260505095516 | 59 | 169 | 7.8 | 16.5 | 0.00 | 0.00 | 0.00 | 52 | 1004.5 |
| 20260505095443 | 59 | 184 | 9.6 | 19.1 | 0.00 | 0.00 | 0.00 | 52 | 1004.5 |
| 20260505095133 | 59 | 184 | 8.7 | 19.1 | 0.00 | 0.00 | 0.00 | 52 | 1004.5 |
| 20260505095035 | 59 | 136 | 7.8 | 19.1 | 0.00 | 0.00 | 0.00 | 51 | 1004.5 |
| 20260505094938 | 60 | 182 | 6.1 | 19.1 | 0.00 | 0.00 | 0.00 | 51 | 1004.5 |
| 20260505094900 | 60 | 166 | 6.1 | 19.1 | 0.00 | 0.00 | 0.00 | 51 | 1004.5 |
| 20260505094823 | 59 | 191 | 7.0 | 19.1 | 0.00 | 0.00 | 0.00 | 51 | 1004.5 |
| 20260505094625 | 59 | 157 | 7.8 | 19.1 | 0.00 | 0.00 | 0.00 | 51 | 1004.5 |
| 20260505094547 | 59 | 188 | 6.1 | 16.5 | 0.00 | 0.00 | 0.00 | 51 | 1004.5 |
| 20260505094430 | 59 | 166 | 7.0 | 13.9 | 0.00 | 0.00 | 0.00 | 51 | 1004.7 |
| 20260505094359 | 59 | 166 | 6.1 | 13.9 | 0.00 | 0.00 | 0.00 | 51 | 1004.7 |
| 20260505094320 | 59 | 204 | 5.2 | 13.9 | 0.00 | 0.00 | 0.00 | 51 | 1004.6 |
| 20260505094142 | 60 | 159 | 6.1 | 16.5 | 0.00 | 0.00 | 0.00 | 51 | 1004.7 |
| 20260505094105 | 59 | 171 | 7.8 | 16.5 | 0.00 | 0.00 | 0.00 | 51 | 1004.7 |
| 20260505093947 | 59 | 167 | 7.8 | 16.5 | 0.00 | 0.00 | 0.00 | 51 | 1004.7 |
| 20260505093909 | 59 | 178 | 7.8 | 16.5 | 0.00 | 0.00 | 0.00 | 51 | 1004.7 |
| 20260505093729 | 59 | 146 | 8.7 | 16.5 | 0.00 | 0.00 | 0.00 | 51 | 1004.7 |
| 20260505093622 | 59 | 100 | 7.8 | 16.5 | 0.00 | 0.00 | 0.00 | 51 | 1004.7 |
| 20260505093431 | 59 | 217 | 7.8 | 16.5 | 0.00 | 0.00 | 0.00 | 51 | 1004.8 |
| 20260505093346 | 59 | 175 | 8.7 | 16.5 | 0.00 | 0.00 | 0.00 | 51 | 1004.8 |
| 20260505093214 | 59 | 128 | 7.0 | 13.9 | 0.00 | 0.00 | 0.00 | 51 | 1004.8 |
| 20260505093140 | 59 | 181 | 6.1 | 12.2 | 0.00 | 0.00 | 0.00 | 51 | 1004.8 |
| 20260505092923 | 59 | 188 | 6.1 | 12.2 | 0.00 | 0.00 | 0.00 | 51 | 1004.8 |
| 20260505092847 | 59 | 196 | 6.1 | 12.2 | 0.00 | 0.00 | 0.00 | 51 | 1004.8 |
| 20260505092729 | 59 | 186 | 7.8 | 12.2 | 0.00 | 0.00 | 0.00 | 51 | 1004.8 |
| 20260505092652 | 59 | 138 | 7.0 | 11.3 | 0.00 | 0.00 | 0.00 | 52 | 1004.9 |
| 20260505092533 | 59 | 190 | 6.1 | 10.4 | 0.00 | 0.00 | 0.00 | 51 | 1004.8 |
| 20260505092455 | 59 | 140 | 6.1 | 10.4 | 0.00 | 0.00 | 0.00 | 51 | 1004.8 |
| 20260505092416 | 59 | 173 | 6.1 | 10.4 | 0.00 | 0.00 | 0.00 | 51 | 1004.8 |
| 20260505092238 | 59 | 173 | 7.0 | 10.4 | 0.00 | 0.00 | 0.00 | 51 | 1004.8 |
| 20260505092146 | 59 | 178 | 7.0 | 10.4 | 0.00 | 0.00 | 0.00 | 51 | 1004.8 |
| 20260505092050 | 59 | 159 | 6.1 | 11.3 | 0.00 | 0.00 | 0.00 | 51 | 1004.7 |
| 20260505091951 | 59 | 118 | 5.2 | 13.9 | 0.00 | 0.00 | 0.00 | 51 | 1004.8 |
| 20260505091735 | 59 | 134 | 5.2 | 13.9 | 0.00 | 0.00 | 0.00 | 51 | 1004.7 |
| 20260505091636 | 59 | 165 | 5.2 | 13.9 | 0.00 | 0.00 | 0.00 | 51 | 1004.8 |
| 20260505091538 | 59 | 192 | 6.1 | 13.9 | 0.00 | 0.00 | 0.00 | 51 | 1004.7 |
| 20260505091502 | 59 | 140 | 6.1 | 13.9 | 0.00 | 0.00 | 0.00 | 51 | 1004.7 |
| 20260505091424 | 59 | 190 | 6.1 | 13.9 | 0.00 | 0.00 | 0.00 | 51 | 1004.6 |
| 20260505091255 | 59 | 143 | 7.8 | 13.9 | 0.00 | 0.00 | 0.00 | 51 | 1004.7 |
| 20260505091127 | 59 | 147 | 8.7 | 13.9 | 0.00 | 0.00 | 0.00 | 52 | 1004.6 |
| 20260505091055 | 59 | 189 | 7.8 | 13.0 | 0.00 | 0.00 | 0.00 | 52 | 1004.6 |
| 20260505090940 | 59 | 112 | 6.1 | 13.0 | 0.00 | 0.00 | 0.00 | 52 | 1004.6 |
| 20260505090900 | 59 | 104 | 6.1 | 13.0 | 0.00 | 0.00 | 0.00 | 52 | 1004.6 |
| 20260505090723 | 59 | 193 | 7.8 | 13.0 | 0.00 | 0.00 | 0.00 | 52 | 1004.6 |
| 20260505090646 | 59 | 163 | 7.0 | 13.9 | 0.00 | 0.00 | 0.00 | 52 | 1004.6 |
| 20260505090527 | 59 | 165 | 5.2 | 13.9 | 0.00 | 0.00 | 0.00 | 52 | 1004.6 |
| 20260505090449 | 59 | 174 | 5.2 | 13.9 | 0.00 | 0.00 | 0.00 | 52 | 1004.6 |
| 20260505090410 | 59 | 197 | 6.1 | 13.9 | 0.00 | 0.00 | 0.00 | 51 | 1004.6 |
| 20260505090252 | 59 | 180 | 6.1 | 13.9 | 0.00 | 0.00 | 0.00 | 51 | 1004.5 |
| 20260505090215 | 59 | 213 | 6.1 | 13.9 | 0.00 | 0.00 | 0.00 | 51 | 1004.6 |
| 20260505090044 | 59 | 161 | 7.0 | 13.9 | 0.00 | 0.00 | 0.00 | 51 | 1004.5 |
| 20260505085943 | 59 | 159 | 7.8 | 13.9 | 0.00 | 0.00 | 0.00 | 51 | 1004.5 |
| 20260505085827 | 59 | 167 | 7.0 | 14.8 | 0.00 | 0.00 | 0.00 | 51 | 1004.6 |
| 20260505085729 | 59 | 203 | 4.3 | 11.3 | 0.00 | 0.00 | 0.00 | 51 | 1004.6 |
| 20260505085651 | 59 | 170 | 4.3 | 11.3 | 0.00 | 0.00 | 0.00 | 51 | 1004.6 |
| 20260505085523 | 59 | 187 | 7.0 | 12.2 | 0.00 | 0.00 | 0.00 | 51 | 1004.6 |
| 20260505085416 | 59 | 182 | 6.1 | 11.3 | 0.00 | 0.00 | 0.00 | 51 | 1004.6 |
| 20260505085136 | 59 | 153 | 7.0 | 9.6 | 0.00 | 0.00 | 0.00 | 51 | 1004.6 |
| 20260505085030 | 59 | 162 | 5.2 | 8.7 | 0.00 | 0.00 | 0.00 | 51 | 1004.7 |
| 20260505084954 | 59 | 155 | 5.2 | 8.7 | 0.00 | 0.00 | 0.00 | 51 | 1004.7 |
| 20260505084911 | 59 | 157 | 6.1 | 8.7 | 0.00 | 0.00 | 0.00 | 51 | 1004.7 |
| 20260505084834 | 59 | 143 | 7.0 | 8.7 | 0.00 | 0.00 | 0.00 | 51 | 1004.7 |
| 20260505084645 | 59 | 163 | 7.0 | 9.6 | 0.00 | 0.00 | 0.00 | 51 | 1004.7 |
| 20260505084538 | 59 | 178 | 5.2 | 8.7 | 0.00 | 0.00 | 0.00 | 51 | 1004.8 |
| 20260505084501 | 59 | 175 | 5.2 | 8.7 | 0.00 | 0.00 | 0.00 | 51 | 1004.8 |
| 20260505084325 | 59 | 132 | 5.2 | 10.4 | 0.00 | 0.00 | 0.00 | 51 | 1004.9 |
| 20260505084237 | 59 | 155 | 3.5 | 12.2 | 0.00 | 0.00 | 0.00 | 51 | 1004.9 |
| 20260505084140 | 59 | 129 | 3.5 | 12.2 | 0.00 | 0.00 | 0.00 | 51 | 1004.9 |
| 20260505084026 | 59 | 202 | 4.3 | 12.2 | 0.00 | 0.00 | 0.00 | 51 | 1004.9 |
| 20260505083948 | 59 | 158 | 5.2 | 12.2 | 0.00 | 0.00 | 0.00 | 51 | 1004.9 |
| 20260505083825 | 59 | 134 | 6.1 | 12.2 | 0.00 | 0.00 | 0.00 | 51 | 1004.9 |
| 20260505083728 | 59 | 169 | 5.2 | 12.2 | 0.00 | 0.00 | 0.00 | 51 | 1004.9 |
| 20260505083651 | 59 | 197 | 5.2 | 12.2 | 0.00 | 0.00 | 0.00 | 51 | 1004.9 |
| 20260505083624 | 59 | 174 | 6.1 | 12.2 | 0.00 | 0.00 | 0.00 | 51 | 1004.9 |
| 20260505083428 | 59 | 143 | 6.1 | 13.9 | 0.00 | 0.00 | 0.00 | 51 | 1005.0 |
| 20260505083351 | 59 | 174 | 5.2 | 13.9 | 0.00 | 0.00 | 0.00 | 51 | 1005.0 |
| 20260505083256 | 59 | 192 | 4.3 | 9.6 | 0.00 | 0.00 | 0.00 | 51 | 1005.0 |
| 20260505083219 | 59 | 108 | 5.2 | 10.4 | 0.00 | 0.00 | 0.00 | 51 | 1005.0 |
| 20260505083022 | 59 | 142 | 4.3 | 10.4 | 0.00 | 0.00 | 0.00 | 51 | 1004.9 |
| 20260505082924 | 59 | 164 | 6.1 | 10.4 | 0.00 | 0.00 | 0.00 | 51 | 1005.0 |
| 20260505082826 | 60 | 154 | 5.2 | 10.4 | 0.00 | 0.00 | 0.00 | 51 | 1005.0 |
| 20260505082726 | 60 | 108 | 4.3 | 10.4 | 0.00 | 0.00 | 0.00 | 51 | 1004.9 |
| 20260505082530 | 60 | 169 | 5.2 | 10.4 | 0.00 | 0.00 | 0.00 | 51 | 1004.9 |